M I D A S
Marine Information and Data Acquisition System
Tripno 426 of the Zeeleeuw from 2003-02-07 07:51:14 to 2003-02-07 13:05:54
Back to CruiseResearch ActivitiesStationsMapUnderway DataData graphs

EquipmentUnitsComment
TimeDGPSUTC
LatitudeDGPSDM.mWGS84
LongitudeDGPSDM.mWGS84
TemperatureSBE03/SBE38deg celciusITS90
ConductivitySBE21S/mITS90
SalinitySBE21 Practical Salinity Units
ChlorophylAChelsea fluorimeterg/lCalibrated in Aceton
Missing or incorrect values are displayed as -999
Sea surface data collected by the RV Zeeleeuw from 2003-02-07 07:51:14 to 2003-02-07 13:05:54
                                                                                    Next 1000 lines
Time Latitude Longitude Temperature Conductivity Salinity ChlorophylA
2003-02-07 07:51:21 51°13.627 2°56.028 10.837883 0.70347 4.499637 -0.882377
2003-02-07 07:51:26 51°13.629 2°56.021 10.837883 0.70347 4.499637 -0.882377
2003-02-07 07:51:31 51°13.631 2°56.014 10.843486 0.70347 4.499794 -0.848668
2003-02-07 07:51:36 51°13.633 2°56.006 10.846588 0.70347 4.499716 -0.882377
2003-02-07 07:51:41 51°13.635 2°55.998 10.850292 0.70347 4.499794 -0.882377
2003-02-07 07:51:46 51°13.637 2°55.989 10.852375 0.70347 4.499794 -0.882377
2003-02-07 07:51:51 51°13.639 2°55.98 10.843532 0.70347 4.499794 -0.882377
2003-02-07 07:51:56 51°13.641 2°55.971 10.843532 0.70347 4.499794 -0.882377
2003-02-07 07:52:01 51°13.642 2°55.962 10.795778 0.70347 4.49995 -0.848668
2003-02-07 07:52:06 51°13.644 2°55.953 10.836957 0.703365 4.499391 -0.882377
2003-02-07 07:52:11 51°13.645 2°55.945 10.83918 0.703365 4.499391 -0.848668
2003-02-07 07:52:16 51°13.647 2°55.937 10.839273 0.703365 4.499469 -0.882377
2003-02-07 07:52:21 51°13.648 2°55.929 10.835661 0.703261 4.498753 -0.848668
2003-02-07 07:52:25 51°13.649 2°55.924 10.835661 0.703261 4.498753 -0.848668
2003-02-07 07:52:31 51°13.651 2°55.916 10.83191 0.703365 4.499391 -0.848668
2003-02-07 07:52:36 51°13.652 2°55.91 10.833438 0.703365 4.499391 -0.848668
2003-02-07 07:52:41 51°13.653 2°55.904 10.829826 0.703261 4.498597 -0.882377
2003-02-07 07:52:46 51°13.655 2°55.898 10.826445 0.703261 4.498832 -0.882377
2003-02-07 07:52:51 51°13.656 2°55.892 10.814958 0.703261 4.499145 -0.882377
2003-02-07 07:52:56 51°13.657 2°55.885 10.814958 0.703261 4.499145 -0.882377
2003-02-07 07:53:01 51°13.658 2°55.879 10.822786 0.703261 4.499223 -0.882377
2003-02-07 07:53:06 51°13.659 2°55.873 10.819775 0.703261 4.499379 -0.848668
2003-02-07 07:53:11 51°13.661 2°55.866 10.830242 0.703261 4.499458 -0.848668
2003-02-07 07:53:16 51°13.662 2°55.86 10.829965 0.703261 4.499614 -0.882377
2003-02-07 07:53:20 51°13.663 2°55.854 10.830937 0.703156 4.498976 -0.882377
2003-02-07 07:53:25 51°13.664 2°55.847 10.830937 0.703156 4.498976 -0.882377
2003-02-07 07:53:31 51°13.666 2°55.839 10.83191 0.703156 4.499133 -0.882377
2003-02-07 07:53:36 51°13.667 2°55.832 10.833947 0.703156 4.499289 -0.882377
2003-02-07 07:53:41 51°13.668 2°55.825 10.826121 0.703156 4.499368 -0.882377
2003-02-07 07:53:46 51°13.669 2°55.818 10.830706 0.703156 4.499524 -0.882377
2003-02-07 07:53:51 51°13.67 2°55.811 10.826584 0.703156 4.499681 -0.848668
2003-02-07 07:53:56 51°13.671 2°55.805 10.826584 0.703156 4.499681 -0.848668
2003-02-07 07:54:01 51°13.672 2°55.798 10.829687 0.703156 4.499837 -0.848668
2003-02-07 07:54:06 51°13.673 2°55.791 10.826815 0.703052 4.499278 -0.882377
2003-02-07 07:54:10 51°13.673 2°55.786 10.835151 0.703052 4.499356 -0.882377
2003-02-07 07:54:16 51°13.674 2°55.778 10.830057 0.703052 4.499513 -0.882377
2003-02-07 07:54:21 51°13.674 2°55.772 10.830428 0.703052 4.499513 -0.882377
2003-02-07 07:54:25 51°13.675 2°55.767 10.830428 0.703052 4.499513 -0.882377
2003-02-07 07:54:31 51°13.675 2°55.761 10.836402 0.703052 4.499669 -0.882377
2003-02-07 07:54:36 51°13.675 2°55.756 10.840615 0.703052 4.499669 -0.814958
2003-02-07 07:54:41 51°13.675 2°55.753 10.839365 0.703052 4.499747 -0.882377
2003-02-07 07:54:46 51°13.675 2°55.75 10.839689 0.702948 4.49911 -0.916087
2003-02-07 07:54:51 51°13.675 2°55.749 10.8358 0.702948 4.499188 -0.882377
2003-02-07 07:54:56 51°13.676 2°55.748 10.838161 0.702948 4.499501 -0.882377
2003-02-07 07:55:00 51°13.676 2°55.748 10.838161 0.702948 4.499501 -0.882377
2003-02-07 07:55:05 51°13.677 2°55.748 10.838809 0.702948 4.499579 -0.848668
2003-02-07 07:55:10 51°13.677 2°55.748 10.837883 0.702948 4.499658 -0.882377
2003-02-07 07:55:15 51°13.678 2°55.749 10.838902 0.702948 4.499658 -0.848668
2003-02-07 07:55:21 51°13.68 2°55.75 10.841264 0.702948 4.499814 -0.882377
2003-02-07 07:55:26 51°13.681 2°55.751 10.841264 0.702948 4.499814 -0.882377
2003-02-07 07:55:31 51°13.683 2°55.752 10.842467 0.702948 4.499736 -0.882377
2003-02-07 07:55:36 51°13.684 2°55.752 10.841773 0.702948 4.499971 -0.882377
2003-02-07 07:55:41 51°13.687 2°55.753 10.842143 0.702843 4.499255 -0.882377
2003-02-07 07:55:46 51°13.689 2°55.754 10.842931 0.702948 4.500128 -0.882377
2003-02-07 07:55:51 51°13.691 2°55.754 10.84506 0.702843 4.499489 -0.882377
2003-02-07 07:55:56 51°13.694 2°55.754 10.84506 0.702843 4.499489 -0.882377
2003-02-07 07:56:01 51°13.697 2°55.753 10.844783 0.702843 4.499568 -0.882377
2003-02-07 07:56:06 51°13.7 2°55.752 10.843857 0.702843 4.499568 -0.882377
2003-02-07 07:56:11 51°13.704 2°55.751 10.845847 0.702843 4.499646 -0.848668
2003-02-07 07:56:16 51°13.707 2°55.749 10.850014 0.702843 4.499646 -0.882377
2003-02-07 07:56:21 51°13.711 2°55.746 10.848533 0.702843 4.499646 -0.848668
2003-02-07 07:56:25 51°13.714 2°55.744 10.848533 0.702843 4.499646 -0.848668
2003-02-07 07:56:31 51°13.719 2°55.739 10.847885 0.702739 4.499086 -0.848668
2003-02-07 07:56:36 51°13.723 2°55.735 10.850663 0.702739 4.499321 -0.882377
2003-02-07 07:56:40 51°13.726 2°55.731 10.84594 0.702739 4.499478 -0.882377
2003-02-07 07:56:45 51°13.73 2°55.726 10.836216 0.702739 4.499478 -0.848668
2003-02-07 07:56:50 51°13.735 2°55.72 10.821489 0.702739 4.499556 -0.882377
2003-02-07 07:56:55 51°13.739 2°55.715 10.821489 0.702739 4.499556 -0.882377
2003-02-07 07:57:00 51°13.744 2°55.71 10.825935 0.702634 4.498762 -0.882377
2003-02-07 07:57:05 51°13.749 2°55.704 10.825889 0.702634 4.498762 -0.882377
2003-02-07 07:57:10 51°13.755 2°55.698 10.826538 0.702634 4.498918 -0.848668
2003-02-07 07:57:15 51°13.76 2°55.692 10.830752 0.702634 4.499153 -0.848668
2003-02-07 07:57:19 51°13.765 2°55.688 10.826121 0.702634 4.499545 -0.882377
2003-02-07 07:57:25 51°13.772 2°55.68 10.826121 0.702634 4.499545 -0.882377
2003-02-07 07:57:30 51°13.778 2°55.674 10.831863 0.702634 4.49978 -0.848668
2003-02-07 07:57:35 51°13.784 2°55.668 10.829409 0.70253 4.499142 -0.848668
2003-02-07 07:57:40 51°13.791 2°55.662 10.823434 0.70253 4.499142 -0.882377
2003-02-07 07:57:44 51°13.796 2°55.658 10.817181 0.70253 4.499298 -0.882377
2003-02-07 07:57:49 51°13.803 2°55.652 10.814402 0.70253 4.499533 -0.882377
2003-02-07 07:57:55 51°13.811 2°55.646 10.814402 0.70253 4.499533 -0.882377
2003-02-07 07:58:00 51°13.818 2°55.64 10.81922 0.702425 4.499052 -0.814958
2003-02-07 07:58:04 51°13.823 2°55.636 10.833299 0.702425 4.499365 -0.882377
2003-02-07 07:58:10 51°13.832 2°55.629 10.843764 0.702425 4.499679 -0.848668
2003-02-07 07:58:15 51°13.839 2°55.624 10.844134 0.702425 4.499757 -0.916087
2003-02-07 07:58:20 51°13.847 2°55.619 10.84506 0.702425 4.499992 -0.848668
2003-02-07 07:58:24 51°13.853 2°55.615 10.845384 0.702321 4.499511 -0.882377
2003-02-07 07:58:30 51°13.862 2°55.609 10.845384 0.702321 4.499511 -0.882377
2003-02-07 07:58:35 51°13.87 2°55.604 10.846264 0.702321 4.499589 -0.848668
2003-02-07 07:58:40 51°13.877 2°55.598 10.845616 0.702321 4.499824 -0.882377
2003-02-07 07:58:45 51°13.885 2°55.593 10.845153 0.702321 4.499903 -0.882377
2003-02-07 07:58:48 51°13.89 2°55.59 10.845523 0.702321 4.499981 -0.848668
2003-02-07 07:58:55 51°13.901 2°55.582 10.845523 0.702321 4.499981 -0.848668
2003-02-07 07:59:00 51°13.908 2°55.576 10.847885 0.702216 4.499421 -0.848668
2003-02-07 07:59:05 51°13.916 2°55.571 10.849783 0.702321 4.500373 -0.882377
2003-02-07 07:59:10 51°13.924 2°55.565 10.850246 0.702216 4.499891 -0.848668
2003-02-07 07:59:13 51°13.929 2°55.562 10.850153 0.702216 4.500127 -0.882377
2003-02-07 07:59:20 51°13.94 2°55.554 10.854412 0.702216 4.500127 -0.848668
2003-02-07 07:59:25 51°13.948 2°55.549 10.854412 0.702216 4.500127 -0.848668
2003-02-07 07:59:29 51°13.954 2°55.544 10.853996 0.702216 4.500127 -0.882377
2003-02-07 07:59:35 51°13.964 2°55.538 10.855755 0.702216 4.500284 -0.848668
2003-02-07 07:59:40 51°13.971 2°55.532 10.857838 0.702216 4.50044 -0.882377
2003-02-07 07:59:45 51°13.979 2°55.527 10.854274 0.702112 4.499959 -0.848668
2003-02-07 07:59:50 51°13.987 2°55.521 10.857421 0.702112 4.500115 -0.882377
2003-02-07 07:59:55 51°13.995 2°55.515 10.857421 0.702112 4.500115 -0.882377
2003-02-07 08:00:00 51°14.003 2°55.509 10.857144 0.702112 4.500272 -0.882377
2003-02-07 08:00:05 51°14.011 2°55.504 10.857329 0.702112 4.500429 -0.848668
2003-02-07 08:00:10 51°14.019 2°55.498 10.857699 0.702112 4.500429 -0.848668
2003-02-07 08:00:15 51°14.027 2°55.492 10.856264 0.702008 4.49979 -0.848668
2003-02-07 08:00:20 51°14.035 2°55.486 10.850292 0.702008 4.499869 -0.882377
2003-02-07 08:00:25 51°14.043 2°55.48 10.850292 0.702008 4.499869 -0.882377
2003-02-07 08:00:30 51°14.051 2°55.474 10.855338 0.702008 4.500026 -0.882377
2003-02-07 08:00:35 51°14.059 2°55.469 10.853116 0.702008 4.500261 -0.882377
2003-02-07 08:00:40 51°14.067 2°55.462 10.860106 0.702008 4.500418 -0.882377
2003-02-07 08:00:44 51°14.073 2°55.458 10.861726 0.702008 4.500497 -0.882377
2003-02-07 08:00:50 51°14.083 2°55.45 10.856635 0.701903 4.499858 -0.882377
2003-02-07 08:00:55 51°14.091 2°55.444 10.862606 0.702008 4.500654 -0.848668
2003-02-07 08:01:00 51°14.099 2°55.438 10.862606 0.702008 4.500654 -0.848668
2003-02-07 08:01:05 51°14.107 2°55.432 10.867466 0.701903 4.500172 -0.882377
2003-02-07 08:01:10 51°14.115 2°55.425 10.867466 0.701903 4.500172 -0.848668
2003-02-07 08:01:15 51°14.123 2°55.419 10.866957 0.701903 4.500172 -0.882377
2003-02-07 08:01:20 51°14.131 2°55.412 10.859736 0.701903 4.500172 -0.882377
2003-02-07 08:01:25 51°14.139 2°55.405 10.859736 0.701903 4.500172 -0.882377
2003-02-07 08:01:28 51°14.144 2°55.401 10.862421 0.701799 4.499611 -0.882377
2003-02-07 08:01:35 51°14.154 2°55.39 10.863671 0.701799 4.499925 -0.848668
2003-02-07 08:01:40 51°14.162 2°55.383 10.867512 0.701903 4.500721 -0.882377
2003-02-07 08:01:45 51°14.169 2°55.375 10.864041 0.701799 4.500161 -0.848668
2003-02-07 08:01:50 51°14.176 2°55.367 10.873251 0.701799 4.500318 -0.882377
2003-02-07 08:01:55 51°14.184 2°55.359 10.873251 0.701799 4.500318 -0.882377
2003-02-07 08:02:01 51°14.193 2°55.349 10.87103 0.701799 4.500318 -0.848668
2003-02-07 08:02:05 51°14.199 2°55.342 10.873113 0.701694 4.499757 -0.848668
2003-02-07 08:02:10 51°14.206 2°55.334 10.875612 0.701694 4.499836 -0.882377
2003-02-07 08:02:16 51°14.214 2°55.324 10.875797 0.701694 4.499836 -0.882377
2003-02-07 08:02:20 51°14.22 2°55.317 10.864596 0.701694 4.499757 -0.882377
2003-02-07 08:02:25 51°14.227 2°55.308 10.864596 0.701694 4.499757 -0.882377
2003-02-07 08:02:30 51°14.234 2°55.298 10.867188 0.701694 4.500071 -0.882377
2003-02-07 08:02:35 51°14.241 2°55.289 10.874084 0.70159 4.499589 -0.882377
2003-02-07 08:02:40 51°14.247 2°55.279 10.876213 0.70159 4.499824 -0.882377
2003-02-07 08:02:45 51°14.254 2°55.269 10.876491 0.701694 4.500464 -0.882377
2003-02-07 08:02:48 51°14.258 2°55.263 10.876491 0.70159 4.499903 -0.882377
2003-02-07 08:02:55 51°14.267 2°55.248 10.876491 0.70159 4.499903 -0.882377
2003-02-07 08:03:01 51°14.274 2°55.236 10.876815 0.70159 4.499903 -0.882377
2003-02-07 08:03:05 51°14.278 2°55.227 10.878018 0.70159 4.499903 -0.882377
2003-02-07 08:03:11 51°14.286 2°55.214 10.866494 0.701694 4.500621 -0.882377
2003-02-07 08:03:15 51°14.29 2°55.205 10.870706 0.701485 4.499892 -0.848668
2003-02-07 08:03:20 51°14.296 2°55.194 10.873159 0.701485 4.500128 -0.882377
2003-02-07 08:03:25 51°14.301 2°55.183 10.873159 0.701485 4.500128 -0.882377
2003-02-07 08:03:30 51°14.307 2°55.172 10.874547 0.701485 4.500206 -0.882377
2003-02-07 08:03:35 51°14.312 2°55.16 10.862004 0.70159 4.500845 -0.848668
2003-02-07 08:03:40 51°14.318 2°55.148 10.871215 0.701485 4.500206 -0.882377
2003-02-07 08:03:45 51°14.323 2°55.136 10.870845 0.70159 4.500767 -0.882377
2003-02-07 08:03:48 51°14.326 2°55.129 10.869225 0.701485 4.500285 -0.882377
2003-02-07 08:03:55 51°14.334 2°55.112 10.872141 0.701485 4.500677 -0.882377
2003-02-07 08:04:00 51°14.34 2°55.1 10.872141 0.701485 4.500677 -0.882377
2003-02-07 08:04:05 51°14.345 2°55.087 10.873714 0.701485 4.500913 -0.882377
2003-02-07 08:04:10 51°14.35 2°55.075 10.873529 0.701381 4.500352 -0.882377
2003-02-07 08:04:15 51°14.356 2°55.062 10.873853 0.701381 4.500352 -0.848668
2003-02-07 08:04:19 51°14.36 2°55.051 10.869549 0.701381 4.500745 -0.882377
2003-02-07 08:04:24 51°14.366 2°55.037 10.869549 0.701381 4.500745 -0.882377
2003-02-07 08:04:29 51°14.371 2°55.023 10.872511 0.701276 4.500499 -0.848668
2003-02-07 08:04:35 51°14.377 2°55.006 10.871215 0.701381 4.500981 -0.882377
2003-02-07 08:04:39 51°14.38 2°54.993 10.862189 0.701381 4.500667 -0.848668
2003-02-07 08:04:45 51°14.384 2°54.975 10.859505 0.701381 4.500981 -0.882377
2003-02-07 08:04:49 51°14.386 2°54.962 10.861865 0.701276 4.501206 -0.848668
2003-02-07 08:04:55 51°14.388 2°54.942 10.861865 0.701276 4.501206 -0.848668
2003-02-07 08:05:00 51°14.389 2°54.926 10.870382 0.701276 4.502228 -0.882377
2003-02-07 08:05:05 51°14.391 2°54.909 10.868207 0.701276 4.501835 -0.882377
2003-02-07 08:05:09 51°14.391 2°54.895 10.867605 0.701276 4.502228 -0.882377
2003-02-07 08:05:14 51°14.392 2°54.878 10.862375 0.701276 4.502228 -0.882377
2003-02-07 08:05:20 51°14.394 2°54.857 10.868299 0.701276 4.501599 -0.882377
2003-02-07 08:05:25 51°14.395 2°54.84 10.868299 0.701276 4.501599 -0.882377
2003-02-07 08:05:30 51°14.396 2°54.822 10.863439 0.701172 4.501117 -0.916087
2003-02-07 08:05:35 51°14.397 2°54.804 10.858857 0.701276 4.503802 -0.882377
2003-02-07 08:05:39 51°14.397 2°54.79 10.860893 0.701172 4.50269 -0.848668
2003-02-07 08:05:44 51°14.398 2°54.772 10.85557 0.701068 4.505515 -0.882377
2003-02-07 08:05:49 51°14.399 2°54.754 10.85719 0.701172 4.509152 -0.848668
2003-02-07 08:05:55 51°14.4 2°54.732 10.854968 0.701068 4.509775 -0.848668
2003-02-07 08:05:59 51°14.401 2°54.718 10.854968 0.701068 4.509775 -0.848668
2003-02-07 08:06:04 51°14.401 2°54.701 10.856542 0.701068 4.509459 -0.882377
2003-02-07 08:06:09 51°14.402 2°54.685 10.861264 0.700859 4.506836 -0.882377
2003-02-07 08:06:14 51°14.402 2°54.669 10.857977 0.700859 4.505337 -0.848668
2003-02-07 08:06:19 51°14.401 2°54.655 10.85807 0.700859 4.503998 -0.882377
2003-02-07 08:06:25 51°14.4 2°54.638 10.85807 0.700859 4.503998 -0.882377
2003-02-07 08:06:29 51°14.399 2°54.627 10.858857 0.700754 4.501861 -0.882377
2003-02-07 08:06:35 51°14.398 2°54.612 10.860014 0.700754 4.499973 -0.882377
2003-02-07 08:06:40 51°14.396 2°54.599 10.859458 0.700859 4.499512 -0.882377
2003-02-07 08:06:45 51°14.394 2°54.588 10.860384 0.700859 4.499276 -0.848668
2003-02-07 08:06:49 51°14.393 2°54.579 10.856496 0.700754 4.499737 -0.848668
2003-02-07 08:06:54 51°14.391 2°54.568 10.856496 0.700754 4.499737 -0.848668
2003-02-07 08:06:58 51°14.39 2°54.559 10.861032 0.700859 4.502265 -0.848668
2003-02-07 08:07:05 51°14.387 2°54.545 10.865892 0.700754 4.502412 -0.848668
2003-02-07 08:07:09 51°14.385 2°54.538 10.865476 0.70065 4.502402 -0.848668
2003-02-07 08:07:15 51°14.382 2°54.526 10.864272 0.700545 4.501919 -0.882377
2003-02-07 08:07:20 51°14.38 2°54.518 10.8658 0.700754 4.502806 -0.882377
2003-02-07 08:07:24 51°14.378 2°54.511 10.8658 0.700754 4.502806 -0.882377
2003-02-07 08:07:30 51°14.375 2°54.501 10.863439 0.700754 4.502334 -0.882377
2003-02-07 08:07:35 51°14.373 2°54.493 10.861217 0.70065 4.500906 -0.882377
2003-02-07 08:07:38 51°14.371 2°54.488 10.86006 0.700545 4.500581 -0.882377
2003-02-07 08:07:45 51°14.368 2°54.477 10.858347 0.700545 4.500581 -0.814958
2003-02-07 08:07:49 51°14.366 2°54.472 10.861356 0.70065 4.501142 -0.882377
2003-02-07 08:07:55 51°14.363 2°54.463 10.858718 0.700545 4.501525 -0.882377
2003-02-07 08:08:00 51°14.36 2°54.457 10.858718 0.700545 4.501525 -0.882377
2003-02-07 08:08:05 51°14.358 2°54.45 10.858301 0.700545 4.501604 -0.882377
2003-02-07 08:08:09 51°14.356 2°54.445 10.86131 0.70065 4.502166 -0.882377
2003-02-07 08:08:14 51°14.354 2°54.438 10.854412 0.700441 4.501594 -0.882377
2003-02-07 08:08:20 51°14.351 2°54.431 10.849598 0.700545 4.502392 -0.848668
2003-02-07 08:08:25 51°14.349 2°54.425 10.849598 0.700545 4.502392 -0.848668
2003-02-07 08:08:29 51°14.347 2°54.42 10.846959 0.70065 4.503268 -0.882377
2003-02-07 08:08:34 51°14.345 2°54.414 10.799068 0.700336 4.502765 -0.882377
2003-02-07 08:08:40 51°14.343 2°54.407 10.790078 0.700336 4.50316 -0.882377
2003-02-07 08:08:44 51°14.341 2°54.403 10.810094 0.700336 4.503238 -0.882377
2003-02-07 08:08:50 51°14.339 2°54.396 10.810418 0.700232 4.502519 -0.848668
2003-02-07 08:08:55 51°14.337 2°54.391 10.806898 0.700127 4.501957 -0.848668
2003-02-07 08:08:59 51°14.335 2°54.387 10.806898 0.700127 4.501957 -0.848668
2003-02-07 08:09:05 51°14.333 2°54.38 10.785259 0.700127 4.501878 -0.882377
2003-02-07 08:09:10 51°14.331 2°54.375 10.791469 0.700127 4.501957 -0.848668
2003-02-07 08:09:14 51°14.33 2°54.371 10.738807 0.700023 4.501474 -0.882377
2003-02-07 08:09:20 51°14.328 2°54.365 10.762269 0.699919 4.500597 -0.882377
2003-02-07 08:09:25 51°14.326 2°54.36 10.762269 0.699919 4.500597 -0.882377
2003-02-07 08:09:28 51°14.325 2°54.357 10.785537 0.699919 4.500676 -0.882377
2003-02-07 08:09:34 51°14.323 2°54.351 10.805971 0.699919 4.500833 -0.882377
2003-02-07 08:09:40 51°14.321 2°54.345 10.771726 0.699919 4.500597 -0.848668
2003-02-07 08:09:45 51°14.32 2°54.34 10.766302 0.699814 4.499956 -0.882377
2003-02-07 08:09:50 51°14.318 2°54.335 10.81431 0.699814 4.500035 -0.848668
2003-02-07 08:09:55 51°14.317 2°54.33 10.770057 0.699814 4.500192 -0.848668
2003-02-07 08:09:59 51°14.316 2°54.327 10.770057 0.699814 4.500192 -0.848668
2003-02-07 08:10:05 51°14.314 2°54.321 10.769501 0.699814 4.500508 -0.916087
2003-02-07 08:10:09 51°14.313 2°54.317 10.781366 0.699814 4.499956 -0.848668
2003-02-07 08:10:15 51°14.311 2°54.312 10.763289 0.69971 4.498922 -0.882377
2003-02-07 08:10:20 51°14.31 2°54.308 10.771772 0.69971 4.498843 -0.882377
2003-02-07 08:10:25 51°14.309 2°54.303 10.771772 0.69971 4.498843 -0.882377
2003-02-07 08:10:30 51°14.308 2°54.299 10.787344 0.69971 4.499158 -0.848668
2003-02-07 08:10:35 51°14.306 2°54.293 10.803469 0.69971 4.499315 -0.848668
2003-02-07 08:10:38 51°14.305 2°54.289 10.810372 0.69971 4.499709 -0.848668
2003-02-07 08:10:45 51°14.302 2°54.278 10.816765 0.699605 4.499226 -0.882377
2003-02-07 08:10:50 51°14.299 2°54.267 10.810928 0.69971 4.500182 -0.882377
2003-02-07 08:10:54 51°14.296 2°54.257 10.808612 0.699605 4.499305 -0.882377
2003-02-07 08:11:00 51°14.291 2°54.239 10.808612 0.699605 4.499305 -0.882377
2003-02-07 08:11:05 51°14.286 2°54.223 10.754434 0.699605 4.499147 -0.882377
2003-02-07 08:11:08 51°14.283 2°54.212 10.763103 0.699605 4.499068 -0.882377
2003-02-07 08:11:15 51°14.276 2°54.184 10.771586 0.699605 4.498753 -0.848668
2003-02-07 08:11:19 51°14.272 2°54.167 10.747571 0.699501 4.497876 -0.848668
2003-02-07 08:11:25 51°14.265 2°54.14 10.713574 0.699501 4.497404 -0.848668
2003-02-07 08:11:30 51°14.26 2°54.117 10.713574 0.699501 4.497404 -0.848668
2003-02-07 08:11:35 51°14.254 2°54.093 10.727305 0.699501 4.496932 -0.848668
2003-02-07 08:11:40 51°14.249 2°54.068 10.712321 0.699501 4.496459 -0.882377
2003-02-07 08:11:45 51°14.244 2°54.042 10.730459 0.699501 4.49583 -0.848668
2003-02-07 08:11:49 51°14.24 2°54.021 10.724104 0.699396 4.49456 -0.882377
2003-02-07 08:11:55 51°14.234 2°53.99 10.724104 0.699396 4.49456 -0.882377
2003-02-07 08:12:00 51°14.229 2°53.963 10.720022 0.699396 4.493931 -0.882377
2003-02-07 08:12:05 51°14.223 2°53.936 10.733474 0.699396 4.493931 -0.848668
2003-02-07 08:12:08 51°14.219 2°53.92 10.765236 0.699396 4.494167 -0.882377
2003-02-07 08:12:13 51°14.213 2°53.893 10.712507 0.699396 4.494246 -0.848668
2003-02-07 08:12:19 51°14.205 2°53.861 10.722481 0.699396 4.494246 -0.882377
2003-02-07 08:12:25 51°14.196 2°53.829 10.722481 0.699396 4.494246 -0.882377
2003-02-07 08:12:29 51°14.19 2°53.808 10.705779 0.699396 4.494246 -0.848668
2003-02-07 08:12:35 51°14.181 2°53.776 10.732407 0.699396 4.494324 -0.848668
2003-02-07 08:12:40 51°14.172 2°53.75 10.745578 0.699396 4.494639 -0.882377
2003-02-07 08:12:44 51°14.165 2°53.73 10.751884 0.699501 4.495515 -0.848668
2003-02-07 08:12:49 51°14.156 2°53.704 10.737462 0.699396 4.495425 -0.882377
2003-02-07 08:12:55 51°14.145 2°53.674 10.732129 0.699396 4.495662 -0.848668
2003-02-07 08:13:00 51°14.135 2°53.649 10.732129 0.699396 4.495662 -0.848668
2003-02-07 08:13:04 51°14.127 2°53.63 10.73621 0.699396 4.49574 -0.882377
2003-02-07 08:13:10 51°14.115 2°53.6 10.704109 0.699396 4.495504 -0.848668
2003-02-07 08:13:15 51°14.104 2°53.577 10.704851 0.699396 4.495347 -0.882377
2003-02-07 08:13:19 51°14.096 2°53.557 10.673895 0.699501 4.495673 -0.848668
2003-02-07 08:13:25 51°14.084 2°53.528 10.716172 0.699501 4.495201 -0.882377
2003-02-07 08:13:28 51°14.078 2°53.513 10.716172 0.699501 4.495201 -0.882377
2003-02-07 08:13:35 51°14.064 2°53.479 10.692461 0.699501 4.495358 -0.848668
2003-02-07 08:13:40 51°14.054 2°53.454 10.733149 0.699501 4.495515 -0.882377
2003-02-07 08:13:45 51°14.044 2°53.429 10.736535 0.699396 4.49519 -0.882377
2003-02-07 08:13:50 51°14.034 2°53.405 10.728325 0.699501 4.495751 -0.848668
2003-02-07 08:13:55 51°14.024 2°53.38 10.700443 0.699501 4.496538 -0.848668
2003-02-07 08:14:00 51°14.014 2°53.355 10.700443 0.699501 4.496538 -0.848668
2003-02-07 08:14:04 51°14.006 2°53.335 10.736998 0.699501 4.496223 -0.916087
2003-02-07 08:14:10 51°13.994 2°53.306 10.702485 0.699501 4.496302 -0.848668
2003-02-07 08:14:15 51°13.984 2°53.281 10.747015 0.699501 4.496617 -0.848668
2003-02-07 08:14:19 51°13.976 2°53.261 10.693761 0.699396 4.496606 -0.848668
2003-02-07 08:14:25 51°13.965 2°53.231 10.693761 0.699396 4.496606 -0.848668
2003-02-07 08:14:29 51°13.957 2°53.211 10.70151 0.699605 4.49773 -0.882377
2003-02-07 08:14:35 51°13.945 2°53.181 10.711347 0.699501 4.497168 -0.848668
2003-02-07 08:14:39 51°13.937 2°53.161 10.695014 0.699501 4.497089 -0.882377
2003-02-07 08:14:45 51°13.926 2°53.131 10.683318 0.699605 4.497494 -0.882377
2003-02-07 08:14:49 51°13.919 2°53.11 10.713017 0.699501 4.497168 -0.882377
2003-02-07 08:14:55 51°13.908 2°53.079 10.713017 0.699501 4.497168 -0.882377
2003-02-07 08:15:00 51°13.9 2°53.053 10.700026 0.699501 4.497168 -0.848668
2003-02-07 08:15:04 51°13.893 2°53.031 10.703459 0.699501 4.496932 -0.882377
2003-02-07 08:15:09 51°13.885 2°53.005 10.703877 0.699501 4.496774 -0.848668
2003-02-07 08:15:13 51°13.879 2°52.983 10.680023 0.699605 4.497415 -0.848668
2003-02-07 08:15:17 51°13.873 2°52.962 10.693482 0.699605 4.496392 -0.848668
2003-02-07 08:15:24 51°13.862 2°52.924 10.700536 0.699605 4.496234 -0.882377
2003-02-07 08:15:29 51°13.854 2°52.897 10.700536 0.699605 4.496234 -0.882377
2003-02-07 08:15:35 51°13.845 2°52.864 10.713899 0.699605 4.496392 -0.848668
2003-02-07 08:15:40 51°13.837 2°52.837 10.715198 0.699396 4.49519 -0.848668
2003-02-07 08:15:45 51°13.83 2°52.81 10.667675 0.699605 4.496549 -0.882377
2003-02-07 08:15:50 51°13.822 2°52.784 10.700258 0.699605 4.496234 -0.882377
2003-02-07 08:15:54 51°13.815 2°52.762 10.700026 0.699814 4.497122 -0.848668
2003-02-07 08:16:00 51°13.806 2°52.73 10.700026 0.699814 4.497122 -0.848668
2003-02-07 08:16:05 51°13.798 2°52.704 10.682808 0.69971 4.496403 -0.848668
2003-02-07 08:16:10 51°13.789 2°52.677 10.679141 0.69971 4.496246 -0.882377
2003-02-07 08:16:15 51°13.781 2°52.651 10.714826 0.69971 4.496403 -0.848668
2003-02-07 08:16:20 51°13.773 2°52.625 10.699654 0.700023 4.498954 -0.882377
2003-02-07 08:16:25 51°13.764 2°52.599 10.68355 0.700441 4.502145 -0.882377
2003-02-07 08:16:28 51°13.759 2°52.583 10.68355 0.700441 4.502145 -0.882377
2003-02-07 08:16:35 51°13.746 2°52.547 10.707728 0.700441 4.501673 -0.848668
2003-02-07 08:16:39 51°13.739 2°52.527 10.708285 0.700232 4.499998 -0.848668
2003-02-07 08:16:45 51°13.728 2°52.496 10.678166 0.700545 4.501919 -0.882377
2003-02-07 08:16:48 51°13.722 2°52.481 10.677098 0.700545 4.502077 -0.848668
2003-02-07 08:16:55 51°13.709 2°52.446 10.677098 0.700545 4.502077 -0.848668
2003-02-07 08:16:59 51°13.701 2°52.427 10.695339 0.701068 4.505672 -0.848668
2003-02-07 08:17:05 51°13.689 2°52.397 10.704758 0.700754 4.503594 -0.848668
2003-02-07 08:17:10 51°13.679 2°52.372 10.699608 0.700754 4.503436 -0.848668
2003-02-07 08:17:14 51°13.671 2°52.352 10.655603 0.700963 4.504717 -0.882377
2003-02-07 08:17:20 51°13.659 2°52.323 -999 0.700859 4.504155 -0.882377
2003-02-07 08:17:25 51°13.649 2°52.298 -999 0.700859 4.504155 -0.882377
2003-02-07 08:17:28 51°13.643 2°52.283 -999 0.701068 4.505121 -0.882377
2003-02-07 08:17:35 51°13.629 2°52.248 -999 0.700963 4.50448 -0.882377
2003-02-07 08:17:39 51°13.621 2°52.228 -999 0.701068 4.505357 -0.848668
2003-02-07 08:17:45 51°13.61 2°52.198 -999 0.700963 4.504796 -0.848668
2003-02-07 08:17:50 51°13.601 2°52.173 -999 0.700859 4.504392 -0.848668
2003-02-07 08:17:55 51°13.592 2°52.147 -999 0.700859 4.504392 -0.848668
2003-02-07 08:18:00 51°13.583 2°52.121 -999 0.701068 4.50583 -0.882377
2003-02-07 08:18:05 51°13.574 2°52.095 -999 0.701068 4.505594 -0.848668
2003-02-07 08:18:10 51°13.566 2°52.069 -999 0.700859 4.504155 -0.882377
2003-02-07 08:18:15 51°13.558 2°52.042 -999 0.701068 4.505436 -0.848668
2003-02-07 08:18:19 51°13.552 2°52.021 -999 0.700963 4.504796 -0.848668
2003-02-07 08:18:25 51°13.543 2°51.989 -999 0.700859 4.504392 -0.882377
2003-02-07 08:18:28 51°13.538 2°51.973 -999 0.700859 4.504392 -0.882377
2003-02-07 08:18:34 51°13.529 2°51.941 -999 0.700963 4.505347 -0.882377
2003-02-07 08:18:40 51°13.52 2°51.909 -999 0.700963 4.50519 -0.882377
2003-02-07 08:18:44 51°13.514 2°51.887 -999 0.700859 4.50447 -0.882377
2003-02-07 08:18:48 51°13.507 2°51.866 -999 0.700963 4.505268 -0.882377
2003-02-07 08:18:55 51°13.496 2°51.829 -999 0.700963 4.505268 -0.882377
2003-02-07 08:18:59 51°13.489 2°51.808 -999 0.701068 4.505988 -0.848668
2003-02-07 08:19:05 51°13.479 2°51.777 -999 0.701068 4.505988 -0.848668
2003-02-07 08:19:10 51°13.47 2°51.751 -999 0.700859 4.504864 -0.882377
2003-02-07 08:19:15 51°13.461 2°51.726 -999 0.701694 4.510066 -0.848668
2003-02-07 08:19:19 51°13.454 2°51.705 -999 0.701172 4.506549 -0.882377
2003-02-07 08:19:24 51°13.445 2°51.679 -999 0.701172 4.506549 -0.882377
2003-02-07 08:19:28 51°13.438 2°51.659 -999 0.700963 4.504796 -0.882377
2003-02-07 08:19:35 51°13.425 2°51.623 -999 0.701068 4.505199 -0.848668
2003-02-07 08:19:40 51°13.416 2°51.597 -999 0.701485 4.507997 -0.848668
2003-02-07 08:19:45 51°13.407 2°51.572 -999 0.700963 4.504402 -0.848668
2003-02-07 08:19:49 51°13.4 2°51.551 -999 0.700859 4.50384 -0.882377
2003-02-07 08:19:54 51°13.39 2°51.526 -999 0.700859 4.503998 -0.848668
2003-02-07 08:20:00 51°13.379 2°51.496 -999 0.700859 4.503998 -0.848668
2003-02-07 08:20:05 51°13.368 2°51.473 -999 0.701068 4.505909 -0.882377
2003-02-07 08:20:08 51°13.361 2°51.46 -999 0.701068 4.506303 -0.848668
2003-02-07 08:20:15 51°13.344 2°51.43 -999 0.702008 4.511514 -0.848668
2003-02-07 08:20:20 51°13.334 2°51.406 -999 0.70159 4.507849 -0.848668
2003-02-07 08:20:25 51°13.324 2°51.382 -999 0.70159 4.507849 -0.848668
2003-02-07 08:20:30 51°13.314 2°51.357 -999 0.701694 4.508252 -0.882377
2003-02-07 08:20:34 51°13.306 2°51.337 -999 0.702426 4.512654 -0.848668
2003-02-07 08:20:40 51°13.296 2°51.307 -999 0.702739 4.513943 -0.882377
2003-02-07 08:20:45 51°13.286 2°51.282 -999 0.702948 4.514749 -0.848668
2003-02-07 08:20:50 51°13.276 2°51.257 -999 0.702739 4.512996 -0.882377
2003-02-07 08:20:55 51°13.267 2°51.231 -999 0.702739 4.512917 -0.848668
2003-02-07 08:20:58 51°13.261 2°51.216 -999 0.702739 4.512917 -0.848668
2003-02-07 08:21:04 51°13.25 2°51.186 -999 0.702843 4.513399 -0.882377
2003-02-07 08:21:08 51°13.242 2°51.166 -999 0.702321 4.510122 -0.848668
2003-02-07 08:21:15 51°13.229 2°51.131 -999 0.70253 4.511717 -0.848668
2003-02-07 08:21:19 51°13.221 2°51.111 -999 0.702634 4.512593 -0.848668
2003-02-07 08:21:25 51°13.209 2°51.081 -999 0.702634 4.512593 -0.848668
2003-02-07 08:21:30 51°13.2 2°51.055 -999 0.702321 4.510752 -0.848668
2003-02-07 08:21:35 51°13.19 2°51.03 -999 0.702948 4.514907 -0.882377
2003-02-07 08:21:40 51°13.181 2°51.005 -999 0.702217 4.510112 -0.848668
2003-02-07 08:21:45 51°13.171 2°50.98 -999 0.703157 4.516423 -0.882377
2003-02-07 08:21:49 51°13.163 2°50.96 -999 0.70253 4.512584 -0.882377
2003-02-07 08:21:55 51°13.152 2°50.93 -999 0.702112 4.509709 -0.882377
2003-02-07 08:21:59 51°13.144 2°50.91 -999 0.702112 4.509709 -0.882377
2003-02-07 08:22:05 51°13.133 2°50.879 -999 0.702739 4.513943 -0.882377
2003-02-07 08:22:10 51°13.123 2°50.854 -999 0.702948 4.515538 -0.848668
2003-02-07 08:22:15 51°13.114 2°50.829 -999 0.702321 4.511856 -0.882377
2003-02-07 08:22:19 51°13.106 2°50.808 38.894358 0.70253 4.513215 -0.882377
2003-02-07 08:22:25 51°13.095 2°50.778 12.036326 0.382448 2.354502 -0.882377
2003-02-07 08:22:28 51°13.089 2°50.763 12.036326 0.382448 2.354502 -0.882377
2003-02-07 08:22:34 51°13.078 2°50.733 11.886599 0.362536 2.216998 -0.848668
2003-02-07 08:22:37 51°13.072 2°50.718 11.902093 0.359409 2.189079 -0.882377
2003-02-07 08:22:45 51°13.057 2°50.677 12.145051 0.358888 2.181584 -0.848668
2003-02-07 08:22:48 51°13.051 2°50.662 12.133519 0.226469 1.340227 -0.848668
2003-02-07 08:22:54 51°13.04 2°50.632 12.071557 0.128524 0.739591 -0.848668
2003-02-07 08:22:59 51°13.03 2°50.606 12.071557 0.128524 0.739591 -0.848668
2003-02-07 08:23:05 51°13.018 2°50.576 11.591849 0.062479 0.349668 -0.848668
2003-02-07 08:23:09 51°13.011 2°50.556 12.010993 0.048548 0.269781 -0.814958
2003-02-07 08:23:15 51°13 2°50.525 11.980008 0.060608 0.338919 -0.848668
2003-02-07 08:23:20 51°12.99 2°50.5 12.290119 0.040231 0.222718 -0.848668
2003-02-07 08:23:25 51°12.981 2°50.475 11.994251 0.030045 0.165727 -0.882377
2003-02-07 08:23:29 51°12.973 2°50.454 11.994251 0.030045 0.165727 -0.882377
2003-02-07 08:23:35 51°12.962 2°50.424 11.966171 0.024328 0.134162 -0.848668
2003-02-07 08:23:40 51°12.952 2°50.399 12.080873 0.01882 0.104085 -0.848668
2003-02-07 08:23:44 51°12.945 2°50.379 11.936667 0.014871 0.082785 -0.848668
2003-02-07 08:23:49 51°12.935 2°50.353 12.131839 0.012376 0.069482 -0.848668
2003-02-07 08:23:55 51°12.924 2°50.323 12.149908 0.009675 0.055244 -0.848668
2003-02-07 08:24:00 51°12.914 2°50.298 12.149908 0.009675 0.055244 -0.848668
2003-02-07 08:24:04 51°12.906 2°50.278 11.9887 0.009155 0.052521 -0.882377
2003-02-07 08:24:10 51°12.895 2°50.247 12.371334 0.008428 0.048737 -0.882377
2003-02-07 08:24:15 51°12.885 2°50.222 12.171059 0.007388 0.043379 -0.848668
2003-02-07 08:24:19 51°12.878 2°50.202 12.145323 0.007181 0.042313 -0.882377
2003-02-07 08:24:25 51°12.866 2°50.171 12.145323 0.007181 0.042313 -0.882377
2003-02-07 08:24:29 51°12.859 2°50.151 12.281648 0.007284 0.042845 -0.848668
2003-02-07 08:24:35 51°12.848 2°50.12 12.343866 0.006869 0.04072 -0.882377
2003-02-07 08:24:40 51°12.838 2°50.095 12.514239 0.006973 0.041249 -0.882377
2003-02-07 08:24:45 51°12.829 2°50.07 11.852136 0.006661 0.03966 -0.848668
2003-02-07 08:24:50 51°12.819 2°50.044 12.393952 0.006765 0.040188 -0.882377
2003-02-07 08:24:55 51°12.81 2°50.019 12.493604 0.006557 0.039128 -0.882377
2003-02-07 08:24:58 51°12.804 2°50.004 12.493604 0.006557 0.039128 -0.882377
2003-02-07 08:25:05 51°12.79 2°49.968 12.206718 0.006661 0.039654 -0.848668
2003-02-07 08:25:10 51°12.781 2°49.942 12.250607 0.006661 0.039662 -0.848668
2003-02-07 08:25:15 51°12.771 2°49.917 12.596624 0.006661 0.039672 -0.882377
2003-02-07 08:25:20 51°12.762 2°49.892 12.284049 0.006765 0.040205 -0.882377
2003-02-07 08:25:24 51°12.754 2°49.871 12.497397 0.015806 0.087987 -0.848668
2003-02-07 08:25:28 51°12.747 2°49.851 12.497397 0.015806 0.087987 -0.848668
2003-02-07 08:25:35 51°12.733 2°49.815 12.540915 0.014143 0.079067 -0.882377
2003-02-07 08:25:39 51°12.726 2°49.795 12.711864 0.017365 0.096608 -0.882377
2003-02-07 08:25:45 51°12.715 2°49.765 12.490668 0.014559 0.081465 -0.848668
2003-02-07 08:25:48 51°12.709 2°49.75 12.590582 0.020171 0.111888 -0.882377
2003-02-07 08:25:55 51°12.696 2°49.714 12.493152 0.016533 0.092165 -0.882377
2003-02-07 08:25:59 51°12.689 2°49.694 12.493152 0.016533 0.092165 -0.882377
2003-02-07 08:26:05 51°12.677 2°49.663 12.529767 0.015598 0.087178 -0.848668
2003-02-07 08:26:10 51°12.668 2°49.638 12.717265 0.014871 0.083268 -0.848668
2003-02-07 08:26:14 51°12.66 2°49.617 12.466141 0.017261 0.096238 -0.882377
2003-02-07 08:26:20 51°12.649 2°49.587 12.986366 0.014559 0.081606 -0.882377
2003-02-07 08:26:25 51°12.639 2°49.561 12.986366 0.014559 0.081606 -0.882377
2003-02-07 08:26:28 51°12.633 2°49.546 12.843304 0.016014 0.089478 -0.882377
2003-02-07 08:26:35 51°12.62 2°49.51 11.463728 0.015494 0.086663 -0.848668
2003-02-07 08:26:40 51°12.611 2°49.485 12.773412 0.01539 0.086099 -0.848668
2003-02-07 08:26:45 51°12.601 2°49.46 12.909309 0.017573 0.097948 -0.848668
2003-02-07 08:26:49 51°12.594 2°49.439 12.90298 0.0183 0.101913 -0.848668
2003-02-07 08:26:55 51°12.583 2°49.408 13.100085 0.014975 0.083848 -0.882377
2003-02-07 08:27:00 51°12.573 2°49.383 13.100085 0.014975 0.083848 -0.882377
2003-02-07 08:27:05 51°12.564 2°49.357 12.679493 0.016326 0.091162 -0.882377
2003-02-07 08:27:09 51°12.556 2°49.337 12.896786 0.017365 0.096808 -0.848668
2003-02-07 08:27:15 51°12.545 2°49.307 12.878919 0.015078 0.084407 -0.882377
2003-02-07 08:27:19 51°12.537 2°49.286 12.726536 0.015598 0.087216 -0.848668
2003-02-07 08:27:25 51°12.526 2°49.255 12.58968 0.0183 0.101903 -0.848668
2003-02-07 08:27:28 51°12.521 2°49.24 12.58968 0.0183 0.101903 -0.848668
2003-02-07 08:27:35 51°12.507 2°49.204 12.820749 0.015182 0.084962 -0.848668
2003-02-07 08:27:40 51°12.498 2°49.179 12.838991 0.014663 0.082156 -0.848668
2003-02-07 08:27:45 51°12.488 2°49.154 12.706823 0.01539 0.086083 -0.882377
2003-02-07 08:27:48 51°12.483 2°49.138 12.996406 0.014455 0.08103 -0.882377
2003-02-07 08:27:55 51°12.47 2°49.103 12.958926 0.016429 0.091707 -0.882377
2003-02-07 08:28:00 51°12.46 2°49.077 12.958926 0.016429 0.091707 -0.882377
2003-02-07 08:28:05 51°12.451 2°49.052 12.401595 0.017988 0.100187 -0.848668
2003-02-07 08:28:09 51°12.443 2°49.032 12.674178 0.016845 0.093964 -0.882377
2003-02-07 08:28:15 51°12.432 2°49.001 12.613215 0.017157 0.095663 -0.882377
2003-02-07 08:28:20 51°12.423 2°48.976 12.917027 0.019235 0.107006 -0.848668
2003-02-07 08:28:25 51°12.413 2°48.951 12.744985 0.01591 0.088892 -0.848668
2003-02-07 08:28:29 51°12.405 2°48.93 12.744985 0.01591 0.088892 -0.848668
2003-02-07 08:28:34 51°12.396 2°48.905 13.210081 0.016222 0.090578 -0.848668
2003-02-07 08:28:40 51°12.386 2°48.874 13.185638 0.016222 0.090575 -0.882377
2003-02-07 08:28:44 51°12.378 2°48.854 12.857274 0.015078 0.084386 -0.848668
2003-02-07 08:28:50 51°12.368 2°48.823 13.187113 0.014975 0.083825 -0.882377
2003-02-07 08:28:55 51°12.359 2°48.798 12.821468 0.017053 0.095087 -0.882377
2003-02-07 08:29:00 51°12.35 2°48.772 12.821468 0.017053 0.095087 -0.882377
2003-02-07 08:29:04 51°12.343 2°48.751 12.806637 0.017365 0.09678 -0.848668
2003-02-07 08:29:09 51°12.334 2°48.726 12.741565 0.020587 0.114397 -0.882377
2003-02-07 08:29:15 51°12.323 2°48.695 12.739181 0.016118 0.090012 -0.882377
2003-02-07 08:29:19 51°12.316 2°48.674 12.74521 0.017365 0.096784 -0.882377
2003-02-07 08:29:24 51°12.307 2°48.649 12.862663 0.019859 0.110407 -0.882377
2003-02-07 08:29:29 51°12.298 2°48.623 12.862663 0.019859 0.110407 -0.882377
2003-02-07 08:29:35 51°12.287 2°48.593 13.051915 0.017573 0.097913 -0.848668
2003-02-07 08:29:40 51°12.278 2°48.567 13.027459 0.016222 0.090569 -0.848668
2003-02-07 08:29:45 51°12.269 2°48.541 12.751778 0.017573 0.097911 -0.882377
2003-02-07 08:29:50 51°12.26 2°48.516 13.153943 0.016845 0.093956 -0.882377
2003-02-07 08:29:55 51°12.251 2°48.49 13.176207 0.015702 0.087755 -0.848668
2003-02-07 08:30:00 51°12.241 2°48.465 13.176207 0.015702 0.087755 -0.848668
2003-02-07 08:30:05 51°12.232 2°48.439 12.920707 0.017469 0.097345 -0.848668
2003-02-07 08:30:10 51°12.222 2°48.413 13.17728 0.016326 0.091131 -0.882377
2003-02-07 08:30:15 51°12.213 2°48.387 13.006311 0.016118 0.090002 -0.882377
2003-02-07 08:30:20 51°12.205 2°48.361 12.806637 0.016118 0.09 -0.848668
2003-02-07 08:30:25 51°12.196 2°48.335 12.997213 0.016014 0.089438 -0.848668
2003-02-07 08:30:28 51°12.191 2°48.319 12.997213 0.016014 0.089438 -0.848668
2003-02-07 08:30:34 51°12.181 2°48.288 12.863831 0.017988 0.100172 -0.916087
2003-02-07 08:30:40 51°12.171 2°48.256 12.850986 0.016949 0.094516 -0.848668
2003-02-07 08:30:44 51°12.164 2°48.235 13.044839 0.017884 0.09961 -0.882377
2003-02-07 08:30:48 51°12.158 2°48.214 12.540689 0.017053 0.095081 -0.848668
2003-02-07 08:30:54 51°12.147 2°48.183 12.91411 0.017988 0.100173 -0.882377
2003-02-07 08:31:00 51°12.137 2°48.151 12.91411 0.017988 0.100173 -0.882377
2003-02-07 08:31:05 51°12.129 2°48.125 13.002995 0.017053 0.095081 -0.848668
2003-02-07 08:31:10 51°12.12 2°48.099 12.966146 0.01591 0.088877 -0.848668
2003-02-07 08:31:15 51°12.111 2°48.073 13.044391 0.01778 0.099038 -0.848668
2003-02-07 08:31:20 51°12.103 2°48.047 13.178799 0.015702 0.08775 -0.848668
2003-02-07 08:31:25 51°12.094 2°48.021 13.178799 0.015702 0.08775 -0.848668
2003-02-07 08:31:29 51°12.087 2°48 12.887539 0.015494 0.086625 -0.848668
2003-02-07 08:31:35 51°12.077 2°47.969 12.932013 0.018196 0.101304 -0.882377
2003-02-07 08:31:40 51°12.068 2°47.943 13.35392 0.017053 0.095077 -0.882377
2003-02-07 08:31:44 51°12.061 2°47.922 13.566857 0.017157 0.095642 -0.848668
2003-02-07 08:31:49 51°12.053 2°47.896 13.349283 0.016326 0.091127 -0.882377
2003-02-07 08:31:55 51°12.042 2°47.865 12.926315 0.016845 0.093948 -0.882377
2003-02-07 08:32:00 51°12.033 2°47.839 12.926315 0.016845 0.093948 -0.882377
2003-02-07 08:32:03 51°12.028 2°47.823 13.30754 0.017988 0.100171 -0.882377
2003-02-07 08:32:09 51°12.018 2°47.792 13.047661 0.016222 0.090565 -0.848668
2003-02-07 08:32:15 51°12.008 2°47.76 13.090104 0.015806 0.088313 -0.882377
2003-02-07 08:32:19 51°12.002 2°47.739 13.072109 0.015702 0.087749 -0.848668
2003-02-07 08:32:25 51°11.991 2°47.708 13.287907 0.014143 0.079337 -0.848668
2003-02-07 08:32:30 51°11.983 2°47.681 13.287907 0.014143 0.079337 -0.848668
2003-02-07 08:32:35 51°11.974 2°47.655 12.985828 0.024536 0.136191 -0.882377
2003-02-07 08:32:40 51°11.966 2°47.629 13.410158 0.014559 0.08158 -0.848668
2003-02-07 08:32:45 51°11.957 2°47.603 13.431179 0.019859 0.110397 -0.882377
2003-02-07 08:32:49 51°11.95 2°47.582 13.098652 0.01591 0.088874 -0.882377
2003-02-07 08:32:55 51°11.94 2°47.55 12.83989 0.018092 0.100733 -0.848668
2003-02-07 08:32:59 51°11.933 2°47.529 12.83989 0.018092 0.100733 -0.848668
2003-02-07 08:33:05 51°11.923 2°47.498 12.943856 0.015598 0.08718 -0.882377
2003-02-07 08:33:10 51°11.914 2°47.472 13.413276 0.016222 0.090558 -0.882377
2003-02-07 08:33:14 51°11.907 2°47.451 13.188409 0.017677 0.098467 -0.882377
2003-02-07 08:33:19 51°11.898 2°47.425 13.117088 0.015286 0.085495 -0.882377
2003-02-07 08:33:25 51°11.888 2°47.394 12.750428 0.015494 0.086616 -0.882377
2003-02-07 08:33:28 51°11.883 2°47.378 12.750428 0.015494 0.086616 -0.882377
2003-02-07 08:33:35 51°11.872 2°47.34 12.938922 0.01882 0.104703 -0.882377
2003-02-07 08:33:40 51°11.865 2°47.313 12.755017 0.016637 0.092816 -0.882377
2003-02-07 08:33:45 51°11.858 2°47.286 13.123485 0.017573 0.097901 -0.882377
2003-02-07 08:33:49 51°11.852 2°47.264 13.121427 0.014871 0.083256 -0.848668
2003-02-07 08:33:55 51°11.844 2°47.231 13.048064 0.015702 0.087754 -0.882377
2003-02-07 08:33:59 51°11.838 2°47.209 13.048064 0.015702 0.087754 -0.882377
2003-02-07 08:34:05 51°11.83 2°47.176 13.175402 0.021002 0.116679 -0.882377
2003-02-07 08:34:10 51°11.823 2°47.149 12.756861 0.01778 0.099042 -0.882377
2003-02-07 08:34:14 51°11.817 2°47.127 13.079496 0.021002 0.116675 -0.882377
2003-02-07 08:34:20 51°11.808 2°47.094 12.703806 0.019132 0.106412 -0.882377
2003-02-07 08:34:25 51°11.801 2°47.066 12.940402 0.0183 0.101871 -0.882377
2003-02-07 08:34:30 51°11.794 2°47.039 12.940402 0.0183 0.101871 -0.882377
2003-02-07 08:34:34 51°11.788 2°47.017 12.959509 0.018508 0.103004 -0.882377
2003-02-07 08:34:40 51°11.78 2°46.984 12.806547 0.016326 0.091127 -0.848668
2003-02-07 08:34:45 51°11.772 2°46.956 13.09543 0.019963 0.110968 -0.848668
2003-02-07 08:34:48 51°11.768 2°46.94 12.854848 0.015078 0.084382 -0.848668
2003-02-07 08:34:55 51°11.758 2°46.901 13.324222 0.019443 0.108129 -0.848668
2003-02-07 08:34:59 51°11.752 2°46.879 13.324222 0.019443 0.108129 -0.848668
2003-02-07 08:35:05 51°11.744 2°46.846 13.261573 0.016741 0.093392 -0.882377
2003-02-07 08:35:09 51°11.738 2°46.824 13.071751 0.015806 0.088319 -0.848668
2003-02-07 08:35:15 51°11.729 2°46.791 12.960227 0.016949 0.09453 -0.882377
2003-02-07 08:35:20 51°11.722 2°46.764 13.412919 0.016637 0.092825 -0.882377
2003-02-07 08:35:25 51°11.715 2°46.737 12.976369 0.018196 0.10131 -0.882377
2003-02-07 08:35:30 51°11.708 2°46.709 12.976369 0.018196 0.10131 -0.882377
2003-02-07 08:35:35 51°11.701 2°46.682 13.665174 0.014871 0.083257 -0.882377
2003-02-07 08:35:38 51°11.697 2°46.665 13.151394 0.015806 0.088313 -0.882377
2003-02-07 08:35:45 51°11.687 2°46.626 13.226118 0.0183 0.101874 -0.882377
2003-02-07 08:35:50 51°11.68 2°46.599 13.362033 0.016637 0.092821 -0.882377
2003-02-07 08:35:55 51°11.673 2°46.572 13.362033 0.016637 0.092821 -0.882377
2003-02-07 08:36:00 51°11.666 2°46.544 12.848919 0.016326 0.091131 -0.882377
2003-02-07 08:36:05 51°11.658 2°46.517 13.511907 0.014767 0.082697 -0.848668
2003-02-07 08:36:10 51°11.651 2°46.489 13.214906 0.015702 0.08775 -0.882377
2003-02-07 08:36:15 51°11.644 2°46.461 13.47912 0.015702 0.087749 -0.882377
2003-02-07 08:36:19 51°11.638 2°46.44 13.067006 0.015702 0.087749 -0.882377
2003-02-07 08:36:25 51°11.629 2°46.407 13.150723 0.018092 0.100736 -0.882377
2003-02-07 08:36:29 51°11.624 2°46.385 13.150723 0.018092 0.100736 -0.882377
2003-02-07 08:36:35 51°11.615 2°46.351 13.577966 0.014975 0.083819 -0.848668
2003-02-07 08:36:40 51°11.608 2°46.324 13.465102 0.017469 0.097344 -0.848668
2003-02-07 08:36:45 51°11.601 2°46.296 13.34692 0.014871 0.083263 -0.848668
2003-02-07 08:36:49 51°11.595 2°46.274 13.294779 0.017053 0.095083 -0.848668
2003-02-07 08:36:54 51°11.588 2°46.247 13.07681 0.016014 0.089441 -0.882377
2003-02-07 08:37:00 51°11.579 2°46.214 13.07681 0.016014 0.089441 -0.882377
2003-02-07 08:37:04 51°11.573 2°46.192 13.230406 0.015702 0.087754 -0.848668
2003-02-07 08:37:09 51°11.566 2°46.164 13.428017 0.017469 0.097343 -0.882377
2003-02-07 08:37:14 51°11.559 2°46.137 12.952603 0.015494 0.086629 -0.882377
2003-02-07 08:37:20 51°11.55 2°46.103 13.576811 0.014455 0.081017 -0.882377
2003-02-07 08:37:25 51°11.543 2°46.076 13.260547 0.018924 0.105282 -0.882377
2003-02-07 08:37:29 51°11.537 2°46.054 13.260547 0.018924 0.105282 -0.882377
2003-02-07 08:37:35 51°11.528 2°46.021 13.552768 0.019963 0.110982 -0.814958
2003-02-07 08:37:40 51°11.521 2°45.993 13.24032 0.016429 0.091708 -0.848668
2003-02-07 08:37:44 51°11.515 2°45.971 12.81239 0.017884 0.099617 -0.882377
2003-02-07 08:37:49 51°11.508 2°45.943 13.690108 0.017573 0.097916 -0.882377
2003-02-07 08:37:55 51°11.499 2°45.91 13.056035 0.015702 0.087759 -0.848668
2003-02-07 08:38:00 51°11.492 2°45.883 13.056035 0.015702 0.087759 -0.848668
2003-02-07 08:38:05 51°11.485 2°45.855 13.406951 0.015078 0.084385 -0.882377
2003-02-07 08:38:09 51°11.479 2°45.833 13.217229 0.015598 0.0872 -0.848668
2003-02-07 08:38:11 51°11.476 2°45.822 13.2576 0.016014 0.089454 -0.882377
2003-02-07 08:38:18 51°11.466 2°45.783 13.438704 0.014975 0.083832 -0.848668
2003-02-07 08:38:25 51°11.456 2°45.744 13.486907 0.018924 0.105297 -0.882377
2003-02-07 08:38:30 51°11.449 2°45.717 13.486907 0.018924 0.105297 -0.882377
2003-02-07 08:38:35 51°11.442 2°45.689 13.005594 0.016222 0.090579 -0.848668
2003-02-07 08:38:39 51°11.436 2°45.667 13.347589 0.015702 0.087763 -0.882377
2003-02-07 08:38:45 51°11.427 2°45.633 13.343799 0.015494 0.086643 -0.882377
2003-02-07 08:38:49 51°11.422 2°45.611 13.847217 0.015702 0.087766 -0.882377
2003-02-07 08:38:55 51°11.413 2°45.578 13.57921 0.01539 0.086082 -0.882377
2003-02-07 08:38:59 51°11.407 2°45.556 13.57921 0.01539 0.086082 -0.882377
2003-02-07 08:39:05 51°11.399 2°45.523 13.527917 0.0183 0.101894 -0.882377
2003-02-07 08:39:09 51°11.393 2°45.501 13.546012 0.015702 0.087769 -0.882377
2003-02-07 08:39:15 51°11.385 2°45.468 13.172497 0.018716 0.104163 -0.882377
2003-02-07 08:39:20 51°11.377 2°45.44 13.285721 0.014663 0.082155 -0.882377
2003-02-07 08:39:25 51°11.37 2°45.412 13.178397 0.016118 0.090026 -0.848668
2003-02-07 08:39:30 51°11.363 2°45.385 13.178397 0.016118 0.090026 -0.848668
2003-02-07 08:39:34 51°11.358 2°45.362 13.53263 0.01591 0.088901 -0.848668
2003-02-07 08:39:40 51°11.349 2°45.329 13.655367 0.018716 0.10417 -0.848668
2003-02-07 08:39:45 51°11.342 2°45.302 13.795331 0.01539 0.086087 -0.848668
2003-02-07 08:39:50 51°11.334 2°45.274 13.156536 0.018924 0.105308 -0.882377
2003-02-07 08:39:55 51°11.328 2°45.246 13.737333 0.017157 0.095673 -0.814958
2003-02-07 08:39:59 51°11.322 2°45.224 13.737333 0.017157 0.095673 -0.814958
2003-02-07 08:40:05 51°11.313 2°45.191 8.013163 0.361286 2.229364 -0.781249
2003-02-07 08:40:08 51°11.309 2°45.175 7.903235 0.358263 2.220415 -0.814958
2003-02-07 08:40:14 51°11.3 2°45.141 7.614574 0.773998 5.064161 0.97164
2003-02-07 08:40:20 51°11.292 2°45.108 7.616082 0.830127 5.522463 1.5447
2003-02-07 08:40:25 51°11.284 2°45.08 7.616082 0.830127 5.522463 1.5447
2003-02-07 08:40:30 51°11.277 2°45.053 7.806949 1.187632 8.334016 0.095195
2003-02-07 08:40:35 51°11.27 2°45.025 7.96149 1.580386 11.778487 1.578409
2003-02-07 08:40:40 51°11.262 2°44.997 8.078904 2.824376 24.779847 2.286306
2003-02-07 08:40:44 51°11.257 2°44.975 7.680286 3.186055 29.695643 1.949212
2003-02-07 08:40:50 51°11.248 2°44.942 8.066679 3.232183 30.739727 2.522272
2003-02-07 08:40:55 51°11.241 2°44.914 8.066679 3.232183 30.739727 2.522272
2003-02-07 08:41:00 51°11.234 2°44.887 7.787878 3.32055 32.631735 2.893076
2003-02-07 08:41:05 51°11.227 2°44.859 7.627906 3.30202 32.975741 2.960494
2003-02-07 08:41:10 51°11.22 2°44.831 8.145591 3.274749 33.095166 2.960494
2003-02-07 08:41:15 51°11.213 2°44.804 7.566182 3.242211 32.972183 2.926785
2003-02-07 08:41:20 51°11.205 2°44.776 7.706824 3.221362 32.896261 2.960494
2003-02-07 08:41:25 51°11.198 2°44.748 7.829749 3.201146 32.831323 3.027913
2003-02-07 08:41:28 51°11.194 2°44.732 7.829749 3.201146 32.831323 3.027913
2003-02-07 08:41:34 51°11.185 2°44.699 7.909388 3.183457 32.688164 3.129042
2003-02-07 08:41:39 51°11.177 2°44.671 8.149693 3.182194 32.741952 3.095332
2003-02-07 08:41:45 51°11.169 2°44.638 7.87324 3.16956 32.642283 2.960494
2003-02-07 08:41:49 51°11.163 2°44.616 7.955197 3.161663 32.563303 3.19646
2003-02-07 08:41:54 51°11.156 2°44.588 7.718049 3.150292 32.449776 3.129042
2003-02-07 08:41:59 51°11.149 2°44.56 7.718049 3.150292 32.449776 3.129042
2003-02-07 08:42:05 51°11.14 2°44.527 7.24869 3.160295 32.58515 3.129042
2003-02-07 08:42:10 51°11.133 2°44.499 7.39882 3.158399 32.566071 3.095332
2003-02-07 08:42:15 51°11.126 2°44.472 8.158669 3.156083 32.554958 3.095332
2003-02-07 08:42:20 51°11.119 2°44.444 7.761373 3.153977 32.536872 3.129042
2003-02-07 08:42:25 51°11.112 2°44.416 8.753831 3.153451 32.537673 3.129042
2003-02-07 08:42:29 51°11.106 2°44.394 8.753831 3.153451 32.537673 3.129042
2003-02-07 08:42:35 51°11.098 2°44.361 8.02975 3.152188 32.528351 3.23017
2003-02-07 08:42:39 51°11.092 2°44.339 39.113905 3.153556 32.553365 3.19646
2003-02-07 08:42:45 51°11.084 2°44.305 -999 3.150924 32.530102 3.162751
2003-02-07 08:42:50 51°11.077 2°44.277 -999 3.151135 32.537624 3.129042
2003-02-07 08:42:55 51°11.071 2°44.249 -999 3.151135 32.537624 3.129042
2003-02-07 08:43:00 51°11.065 2°44.221 -999 3.148082 32.501872 3.19646
2003-02-07 08:43:05 51°11.058 2°44.193 -999 3.153557 32.571281 3.297589
2003-02-07 08:43:10 51°11.053 2°44.164 -999 3.152293 32.558542 3.19646
2003-02-07 08:43:15 51°11.047 2°44.136 -999 3.151767 32.553376 3.162751
2003-02-07 08:43:20 51°11.04 2°44.108 -999 3.153662 32.585296 3.23017
2003-02-07 08:43:25 51°11.034 2°44.08 -999 3.15103 32.565435 3.19646
2003-02-07 08:43:30 51°11.028 2°44.052 -999 3.15103 32.565435 3.19646
2003-02-07 08:43:35 51°11.022 2°44.024 -999 3.146924 32.520166 3.19646
2003-02-07 08:43:40 51°11.015 2°43.995 -999 3.150819 32.567297 3.23017
2003-02-07 08:43:44 51°11.01 2°43.973 -999 3.146713 32.526289 3.129042
2003-02-07 08:43:48 51°11.005 2°43.951 -999 3.146397 32.527795 3.19646
2003-02-07 08:43:55 51°10.997 2°43.911 -999 3.150083 32.569971 3.19646
2003-02-07 08:43:59 51°10.992 2°43.889 -999 3.150083 32.569971 3.19646
2003-02-07 08:44:05 51°10.984 2°43.855 -999 3.149135 32.564252 3.095332
2003-02-07 08:44:10 51°10.978 2°43.827 -999 3.145976 32.530659 3.23017
2003-02-07 08:44:15 51°10.972 2°43.799 -999 3.133132 32.384525 3.162751
2003-02-07 08:44:20 51°10.965 2°43.771 -999 3.146608 32.539598 3.095332
2003-02-07 08:44:25 51°10.959 2°43.742 -999 3.144924 32.515193 3.162751
2003-02-07 08:44:29 51°10.953 2°43.719 -999 3.144924 32.515193 3.162751
2003-02-07 08:44:35 51°10.945 2°43.684 -999 3.141765 32.478194 3.162751
2003-02-07 08:44:40 51°10.938 2°43.654 -999 3.146082 32.529302 3.095332
2003-02-07 08:44:44 51°10.934 2°43.63 -999 3.146187 32.536485 3.129042
2003-02-07 08:44:50 51°10.925 2°43.595 -999 3.140186 32.46694 3.162751
2003-02-07 08:44:55 51°10.918 2°43.565 -999 3.138712 32.44922 3.19646
2003-02-07 08:45:00 51°10.912 2°43.534 -999 3.138712 32.44922 3.19646
2003-02-07 08:45:05 51°10.905 2°43.504 -999 3.139554 32.46312 3.129042
2003-02-07 08:45:09 51°10.9 2°43.48 -999 3.140712 32.480639 3.095332
2003-02-07 08:45:14 51°10.893 2°43.45 -999 3.1345 32.410392 3.162751
2003-02-07 08:45:20 51°10.885 2°43.413 -999 3.135132 32.421026 3.23017
2003-02-07 08:45:24 51°10.88 2°43.388 -999 3.135132 32.421026 3.23017
2003-02-07 08:45:28 51°10.875 2°43.364 -999 3.136606 32.435343 3.162751
2003-02-07 08:45:35 51°10.866 2°43.321 -999 3.136185 32.43904 3.162751
2003-02-07 08:45:40 51°10.859 2°43.29 -999 3.134079 32.414083 3.095332
2003-02-07 08:45:45 51°10.852 2°43.26 -999 3.136185 32.437336 3.129042
2003-02-07 08:45:48 51°10.848 2°43.242 -999 3.136711 32.443363 3.095332
2003-02-07 08:45:54 51°10.84 2°43.205 -999 3.136711 32.443363 3.095332
2003-02-07 08:46:00 51°10.832 2°43.168 -999 3.135764 32.433367 3.162751
2003-02-07 08:46:05 51°10.825 2°43.137 -999 3.136185 32.441597 3.19646
2003-02-07 08:46:09 51°10.82 2°43.113 -999 3.139028 32.474146 3.129042
2003-02-07 08:46:14 51°10.813 2°43.082 -999 3.138712 32.469676 3.095332
2003-02-07 08:46:20 51°10.805 2°43.045 -999 3.140818 32.492082 3.095332
2003-02-07 08:46:24 51°10.8 2°43.021 -999 3.140186 32.484848 3.061623
2003-02-07 08:46:30 51°10.792 2°42.984 -999 3.140186 32.484848 3.061623
2003-02-07 08:46:35 51°10.785 2°42.953 -999 3.140186 32.484848 3.162751
2003-02-07 08:46:40 51°10.778 2°42.922 -999 3.141449 32.497609 3.129042
2003-02-07 08:46:44 51°10.773 2°42.898 -999 3.140712 32.490023 3.263879
2003-02-07 08:46:50 51°10.765 2°42.861 -999 3.144503 32.531719 3.129042
2003-02-07 08:46:55 51°10.759 2°42.83 -999 3.143344 32.516748 3.095332
2003-02-07 08:46:59 51°10.754 2°42.805 -999 3.143344 32.516748 3.095332
2003-02-07 08:47:04 51°10.748 2°42.774 -999 3.142081 32.498867 3.19646
2003-02-07 08:47:10 51°10.741 2°42.737 -999 3.143029 32.508863 3.162751
2003-02-07 08:47:15 51°10.735 2°42.706 -999 3.144397 32.521972 3.162751
2003-02-07 08:47:19 51°10.73 2°42.681 -999 3.146608 32.546433 3.19646
2003-02-07 08:47:25 51°10.722 2°42.644 -999 3.146924 32.550049 3.162751
2003-02-07 08:47:29 51°10.718 2°42.619 -999 3.146924 32.550049 3.162751
2003-02-07 08:47:34 51°10.712 2°42.588 -999 3.146608 32.546433 3.19646
2003-02-07 08:47:40 51°10.704 2°42.551 -999 3.147451 32.554368 3.162751
2003-02-07 08:47:44 51°10.699 2°42.526 -999 3.143976 32.51715 3.23017
2003-02-07 08:47:49 51°10.693 2°42.495 -999 3.143028 32.502035 3.162751
2003-02-07 08:47:55 51°10.686 2°42.457 -999 3.142713 32.496713 3.162751
2003-02-07 08:47:58 51°10.683 2°42.439 -999 3.142713 32.496713 3.162751
2003-02-07 08:48:05 51°10.674 2°42.395 -999 3.147451 32.556077 3.061623
2003-02-07 08:48:09 51°10.669 2°42.371 -999 3.148503 32.564713 3.095332
2003-02-07 08:48:14 51°10.663 2°42.339 -999 3.145029 32.526642 3.027913
2003-02-07 08:48:20 51°10.656 2°42.302 -999 3.146503 32.543518 3.061623
2003-02-07 08:48:25 51°10.65 2°42.27 -999 3.146292 32.536836 3.23017
2003-02-07 08:48:30 51°10.644 2°42.24 -999 3.146292 32.536836 3.23017
2003-02-07 08:48:34 51°10.638 2°42.215 -999 3.147766 32.556275 3.162751
2003-02-07 08:48:39 51°10.633 2°42.184 -999 3.147661 32.557633 3.027913
2003-02-07 08:48:46 51°10.624 2°42.14 -999 3.147556 32.558138 3.061623
2003-02-07 08:48:49 51°10.62 2°42.121 -999 3.146924 32.545777 3.129042
2003-02-07 08:48:52 51°10.617 2°42.102 -999 3.146713 32.541657 2.960494
2003-02-07 08:49:01 51°10.606 2°42.047 -999 3.146713 32.541657 2.960494
2003-02-07 08:49:06 51°10.599 2°42.016 -999 3.147135 32.549042 3.162751
2003-02-07 08:49:10 51°10.595 2°41.991 -999 3.146924 32.542359 3.19646
2003-02-07 08:49:16 51°10.587 2°41.953 -999 3.148293 32.559738 3.095332
2003-02-07 08:49:20 51°10.582 2°41.929 -999 3.149767 32.580035 3.061623
2003-02-07 08:49:26 51°10.575 2°41.891 -999 3.14903 32.568176 3.095332
2003-02-07 08:49:30 51°10.57 2°41.867 -999 3.14903 32.568176 3.095332
2003-02-07 08:49:35 51°10.564 2°41.836 -999 3.14545 32.528048 3.129042
2003-02-07 08:49:40 51°10.558 2°41.805 -999 3.148398 32.562653 3.027913
2003-02-07 08:49:46 51°10.551 2°41.768 -999 3.144081 32.515794 3.162751
2003-02-07 08:49:50 51°10.546 2°41.743 -999 3.145871 32.535431 3.162751
2003-02-07 08:49:56 51°10.539 2°41.706 -999 3.144292 32.516498 3.061623
2003-02-07 08:50:00 51°10.534 2°41.681 -999 3.144292 32.516498 3.061623
2003-02-07 08:50:06 51°10.527 2°41.643 -999 3.145555 32.529253 3.19646
2003-02-07 08:50:07 51°10.525 2°41.637 -999 3.139028 32.461356 3.23017
2003-02-07 08:50:16 51°10.515 2°41.581 -999 3.137132 32.44222 3.162751
2003-02-07 08:50:20 51°10.51 2°41.556 -999 3.134395 32.410889 3.19646
2003-02-07 08:50:25 51°10.504 2°41.525 -999 3.133974 32.405218 3.162751
2003-02-07 08:50:28 51°10.5 2°41.507 -999 3.133974 32.405218 3.162751
2003-02-07 08:50:36 51°10.491 2°41.457 -999 3.129236 32.356102 3.23017
2003-02-07 08:50:40 51°10.486 2°41.432 -999 3.124709 32.30515 3.23017
2003-02-07 08:50:46 51°10.479 2°41.394 -999 3.116918 32.219414 3.23017
2003-02-07 08:50:50 51°10.474 2°41.369 -999 3.110812 32.14958 3.23017
2003-02-07 08:50:56 51°10.467 2°41.332 -999 3.106074 32.097942 3.297589
2003-02-07 08:51:00 51°10.462 2°41.307 -999 3.106074 32.097942 3.297589
2003-02-07 08:51:06 51°10.455 2°41.27 -999 3.105653 32.097342 3.23017
2003-02-07 08:51:10 51°10.45 2°41.245 -999 3.105022 32.093492 3.19646
2003-02-07 08:51:16 51°10.443 2°41.207 -999 3.099863 32.032826 3.19646
2003-02-07 08:51:20 51°10.439 2°41.182 -999 3.101231 32.046788 3.263879
2003-02-07 08:51:26 51°10.431 2°41.145 -999 3.100389 32.045579 3.23017
2003-02-07 08:51:30 51°10.427 2°41.12 -999 3.100389 32.045579 3.23017
2003-02-07 08:51:35 51°10.421 2°41.089 -999 3.094704 31.978062 3.331298
2003-02-07 08:51:40 51°10.415 2°41.057 -999 3.097336 32.006466 3.297589
2003-02-07 08:51:46 51°10.407 2°41.02 -999 3.095547 31.98937 3.297589
2003-02-07 08:51:50 51°10.403 2°40.995 -999 3.096494 31.995998 3.297589
2003-02-07 08:51:55 51°10.396 2°40.964 -999 3.099126 32.026084 3.365007
2003-02-07 08:51:59 51°10.392 2°40.938 -999 3.099126 32.026084 3.365007
2003-02-07 08:52:06 51°10.383 2°40.895 -999 3.097441 32.001784 3.297589
2003-02-07 08:52:10 51°10.378 2°40.87 -999 3.101758 32.047755 3.23017
2003-02-07 08:52:15 51°10.372 2°40.839 -999 3.109338 32.134414 3.23017
2003-02-07 08:52:20 51°10.366 2°40.807 -999 3.11197 32.156911 3.297589
2003-02-07 08:52:26 51°10.359 2°40.77 -999 3.11197 32.156911 3.297589
2003-02-07 08:52:30 51°10.354 2°40.745 -999 3.116392 32.206626 3.365007
2003-02-07 08:52:36 51°10.347 2°40.707 -999 3.121024 32.251983 3.331298
2003-02-07 08:52:37 51°10.346 2°40.701 -999 3.126183 32.305046 3.297589
2003-02-07 08:52:46 51°10.335 2°40.644 -999 3.131026 32.353644 3.466136
2003-02-07 08:52:50 51°10.33 2°40.62 -999 3.142502 32.478104 3.365007
2003-02-07 08:52:56 51°10.323 2°40.582 -999 3.145555 32.506214 3.331298
2003-02-07 08:52:58 51°10.32 2°40.569 -999 3.145555 32.506214 3.331298
2003-02-07 08:53:05 51°10.312 2°40.526 -999 3.144607 32.488557 3.331298
2003-02-07 08:53:10 51°10.306 2°40.494 -999 3.155347 32.607132 3.398717
2003-02-07 08:53:16 51°10.298 2°40.457 -999 3.159453 32.648978 3.297589
2003-02-07 08:53:20 51°10.293 2°40.432 -999 3.161875 32.669834 3.432426
2003-02-07 08:53:26 51°10.286 2°40.394 -999 3.166718 32.720961 3.398717
2003-02-07 08:53:30 51°10.281 2°40.369 -999 3.166718 32.720961 3.398717
2003-02-07 08:53:35 51°10.275 2°40.338 -999 3.171245 32.765038 3.533554
2003-02-07 08:53:40 51°10.269 2°40.306 -999 3.178089 32.835609 3.567264
2003-02-07 08:53:46 51°10.262 2°40.269 -999 3.183038 32.886209 3.432426
2003-02-07 08:53:50 51°10.257 2°40.244 -999 3.181459 32.862973 3.398717
2003-02-07 08:53:56 51°10.25 2°40.206 -999 3.188408 32.935587 3.600973
2003-02-07 08:54:00 51°10.245 2°40.181 -999 3.188408 32.935587 3.600973
2003-02-07 08:54:06 51°10.238 2°40.143 -999 3.192515 32.979985 3.432426
2003-02-07 08:54:10 51°10.233 2°40.118 -999 3.193673 32.991511 3.533554
2003-02-07 08:54:16 51°10.226 2°40.08 -999 3.198095 33.038661 3.634683
2003-02-07 08:54:20 51°10.221 2°40.055 -999 3.195463 33.005946 3.567264
2003-02-07 08:54:26 51°10.214 2°40.017 -999 3.19799 33.033133 3.600973
2003-02-07 08:54:30 51°10.209 2°39.992 -999 3.19799 33.033133 3.600973
2003-02-07 08:54:35 51°10.203 2°39.961 -999 3.203571 33.095265 3.634683
2003-02-07 08:54:40 51°10.197 2°39.93 -999 3.205255 33.109349 3.668392
2003-02-07 08:54:46 51°10.19 2°39.892 -999 3.204834 33.104529 3.668392
2003-02-07 08:54:50 51°10.185 2°39.867 -999 3.203887 33.09455 3.668392
2003-02-07 08:54:55 51°10.179 2°39.836 -999 3.205782 33.11624 3.76952
2003-02-07 08:54:59 51°10.174 2°39.811 -999 3.205782 33.11624 3.76952
2003-02-07 08:55:06 51°10.166 2°39.767 -999 3.203781 33.092479 3.702101
2003-02-07 08:55:10 51°10.161 2°39.742 -999 3.203887 33.096282 3.702101
2003-02-07 08:55:16 51°10.154 2°39.704 -999 3.207046 33.132436 3.76952
2003-02-07 08:55:23 51°10.146 2°39.66 -999 3.203571 33.099597 3.668392
2003-02-07 08:55:30 51°10.138 2°39.617 -999 3.203571 33.099597 3.668392
2003-02-07 08:55:36 51°10.131 2°39.579 -999 3.204097 33.102157 3.702101
2003-02-07 08:55:40 51°10.126 2°39.554 -999 3.20336 33.09632 3.668392
2003-02-07 08:55:46 51°10.119 2°39.516 -999 3.203044 33.094437 3.76952
2003-02-07 08:55:50 51°10.114 2°39.491 -999 3.201044 33.071538 3.702101
2003-02-07 08:55:52 51°10.111 2°39.479 -999 3.199148 33.050711 3.735811
2003-02-07 08:56:01 51°10.101 2°39.422 -999 3.200096 33.063288 3.668392
2003-02-07 08:56:07 51°10.094 2°39.385 -999 3.200096 33.063288 3.668392
2003-02-07 08:56:12 51°10.088 2°39.353 -999 3.194726 33.006152 3.76952
2003-02-07 08:56:16 51°10.083 2°39.328 -999 3.197358 33.03801 3.702101
2003-02-07 08:56:23 51°10.074 2°39.285 -999 3.194831 33.008221 3.836939
2003-02-07 08:56:30 51°10.065 2°39.24 -999 3.194831 33.008221 3.836939
2003-02-07 08:56:36 51°10.058 2°39.203 -999 3.191672 32.975526 3.76952
2003-02-07 08:56:40 51°10.053 2°39.178 -999 3.194094 33.007564 3.735811
2003-02-07 08:56:46 51°10.046 2°39.14 -999 3.196095 33.029601 3.80323
2003-02-07 08:56:50 51°10.042 2°39.114 -999 3.190409 32.966246 3.836939
2003-02-07 08:57:01 51°10.03 2°39.045 -999 3.192304 32.987939 3.80323
2003-02-07 08:57:07 51°10.023 2°39.007 -999 3.192304 32.987939 3.80323
2003-02-07 08:57:12 51°10.018 2°38.975 -999 3.194094 33.008429 3.836939
2003-02-07 08:57:15 51°10.015 2°38.956 -999 3.194621 33.011862 3.870648
2003-02-07 08:57:21 51°10.008 2°38.918 -999 3.193041 32.992055 3.904358
2003-02-07 08:57:26 51°10.003 2°38.886 -999 3.197569 33.042151 3.904358
2003-02-07 08:57:32 51°9.997 2°38.848 -999 3.197148 33.034734 3.904358
2003-02-07 08:57:37 51°9.991 2°38.816 -999 3.197148 33.034734 3.904358
2003-02-07 08:57:41 51°9.987 2°38.79 -999 3.195673 33.014404 3.904358
2003-02-07 08:57:47 51°9.981 2°38.753 -999 3.198622 33.045551 3.971777
2003-02-07 08:57:52 51°9.975 2°38.721 -999 3.195989 33.015426 4.005486
2003-02-07 08:58:01 51°9.966 2°38.664 -999 3.201254 33.071351 4.039195
2003-02-07 08:58:07 51°9.959 2°38.625 -999 3.201254 33.071351 4.039195
2003-02-07 08:58:12 51°9.954 2°38.593 -999 3.199569 33.052071 3.870648
2003-02-07 08:58:15 51°9.95 2°38.574 -999 3.201886 33.070791 4.039195
2003-02-07 08:58:22 51°9.942 2°38.53 -999 3.201675 33.07444 3.904358
2003-02-07 08:58:26 51°9.938 2°38.504 -999 3.202518 33.085812 3.971777
2003-02-07 08:58:32 51°9.932 2°38.466 -999 3.203571 33.10133 4.140324
2003-02-07 08:58:37 51°9.926 2°38.434 -999 3.203571 33.10133 4.140324
2003-02-07 08:58:42 51°9.921 2°38.402 -999 3.203781 33.101141 4.005486
2003-02-07 08:58:46 51°9.916 2°38.377 -999 3.202307 33.08167 4.140324
2003-02-07 08:58:52 51°9.91 2°38.338 -999 3.201991 33.085849 3.938067
2003-02-07 08:58:57 51°9.904 2°38.306 -999 3.200412 33.061711 4.039195
2003-02-07 08:59:02 51°9.899 2°38.274 -999 3.203887 33.098881 4.140324
2003-02-07 08:59:06 51°9.894 2°38.249 -999 3.203887 33.098881 4.140324
2003-02-07 08:59:12 51°9.888 2°38.211 -999 3.20694 33.133832 3.971777
2003-02-07 08:59:15 51°9.885 2°38.193 -999 3.207151 33.131907 4.174033
2003-02-07 08:59:22 51°9.879 2°38.153 -999 3.208098 33.136684 4.140324
2003-02-07 08:59:27 51°9.874 2°38.127 -999 3.209257 33.145603 4.174033
2003-02-07 08:59:32 51°9.87 2°38.104 -999 3.21389 33.193415 4.34258
2003-02-07 08:59:36 51°9.866 2°38.087 -999 3.21389 33.193415 4.34258
2003-02-07 08:59:42 51°9.86 2°38.064 -999 3.217365 33.227968 4.275161
2003-02-07 08:59:46 51°9.855 2°38.051 -999 3.217681 33.225501 4.207742
2003-02-07 08:59:52 51°9.847 2°38.033 -999 3.219049 33.237687 4.174033
2003-02-07 08:59:56 51°9.841 2°38.023 -999 3.222314 33.270688 4.106614
2003-02-07 09:00:02 51°9.832 2°38.011 -999 3.223156 33.275978 4.140324
2003-02-07 09:00:06 51°9.826 2°38.004 -999 3.223156 33.275978 4.140324
2003-02-07 09:00:10 51°9.82 2°37.998 -999 3.225368 33.298666 4.106614
2003-02-07 09:00:16 51°9.811 2°37.991 -999 3.225894 33.300339 4.072905
2003-02-07 09:00:22 51°9.802 2°37.984 -999 3.227052 33.315331 4.140324
2003-02-07 09:00:27 51°9.794 2°37.979 -999 3.229264 33.337146 4.072905
2003-02-07 09:00:31 51°9.788 2°37.973 -999 3.227789 33.317669 4.140324
2003-02-07 09:00:35 51°9.783 2°37.968 -999 3.227789 33.317669 4.140324
2003-02-07 09:00:42 51°9.774 2°37.956 -999 3.228842 33.327102 3.971777
2003-02-07 09:00:46 51°9.769 2°37.949 -999 3.228737 33.324157 4.072905
2003-02-07 09:00:52 51°9.763 2°37.937 -999 3.234213 33.37982 4.039195
2003-02-07 09:00:56 51°9.759 2°37.929 -999 3.234213 33.37459 4.106614
2003-02-07 09:01:01 51°9.755 2°37.918 -999 3.231896 33.342001 4.241452
2003-02-07 09:01:06 51°9.752 2°37.907 -999 3.231896 33.342001 4.241452
2003-02-07 09:01:12 51°9.749 2°37.894 -999 3.235371 33.378249 4.174033
2003-02-07 09:01:15 51°9.748 2°37.887 -999 3.232107 33.335706 4.039195
2003-02-07 09:01:20 51°9.746 2°37.875 -999 3.239057 33.414288 3.971777
2003-02-07 09:01:26 51°9.745 2°37.862 -999 3.232738 33.339447 4.241452
2003-02-07 09:01:31 51°9.745 2°37.85 -999 3.237056 33.388798 4.174033
2003-02-07 09:01:37 51°9.745 2°37.837 -999 3.237056 33.388798 4.174033
2003-02-07 09:01:40 51°9.746 2°37.83 -999 3.235792 33.37174 4.174033
2003-02-07 09:01:46 51°9.748 2°37.817 -999 3.234528 33.359908 4.106614
2003-02-07 09:01:52 51°9.75 2°37.805 -999 3.238635 33.407728 4.140324
2003-02-07 09:01:56 51°9.752 2°37.798 -999 3.236108 33.378835 4.072905
2003-02-07 09:02:01 51°9.755 2°37.789 -999 3.240215 33.427533 4.174033
2003-02-07 09:02:06 51°9.759 2°37.78 -999 3.240215 33.427533 4.174033
2003-02-07 09:02:12 51°9.764 2°37.771 -999 3.236424 33.381575 4.174033
2003-02-07 09:02:14 51°9.765 2°37.768 -999 3.239688 33.418896 4.207742
2003-02-07 09:02:21 51°9.772 2°37.76 -999 3.238846 33.41188 4.207742
2003-02-07 09:02:26 51°9.776 2°37.755 -999 3.24011 33.426329 4.275161
2003-02-07 09:02:32 51°9.782 2°37.75 -999 3.239057 33.412544 4.275161
2003-02-07 09:02:35 51°9.785 2°37.748 -999 3.239057 33.412544 4.275161
2003-02-07 09:02:42 51°9.791 2°37.746 -999 3.238109 33.403452 4.241452
2003-02-07 09:02:47 51°9.796 2°37.745 -999 3.236529 33.382779 4.241452
2003-02-07 09:02:52 51°9.8 2°37.745 -999 3.239688 33.422385 4.308871
2003-02-07 09:02:57 51°9.804 2°37.746 -999 3.237793 33.398969 4.34258
2003-02-07 09:03:01 51°9.808 2°37.747 -999 3.236003 33.375889 4.34258
2003-02-07 09:03:07 51°9.812 2°37.75 -999 3.236003 33.375889 4.34258
2003-02-07 09:03:11 51°9.815 2°37.753 -999 3.236424 33.382447 4.308871
2003-02-07 09:03:17 51°9.819 2°37.757 -999 3.242426 33.452821 4.376289
2003-02-07 09:03:22 51°9.821 2°37.762 -999 3.241795 33.442977 4.308871
2003-02-07 09:03:27 51°9.823 2°37.767 -999 3.238951 33.407852 4.275161
2003-02-07 09:03:32 51°9.824 2°37.772 -999 3.23674 33.383444 4.376289
2003-02-07 09:03:35 51°9.825 2°37.775 -999 3.23674 33.383444 4.376289
2003-02-07 09:03:41 51°9.826 2°37.782 -999 3.23674 33.383444 4.34258
2003-02-07 09:03:46 51°9.826 2°37.789 -999 3.241689 33.440027 4.376289
2003-02-07 09:03:51 51°9.827 2°37.795 -999 3.241373 33.436415 4.174033
2003-02-07 09:03:56 51°9.827 2°37.802 -999 3.236319 33.377758 4.241452
2003-02-07 09:04:01 51°9.827 2°37.809 -999 3.238214 33.399426 4.140324
2003-02-07 09:04:04 51°9.828 2°37.813 -999 3.238214 33.399426 4.140324
2003-02-07 09:04:12 51°9.829 2°37.825 -999 3.236635 33.379627 4.275161
2003-02-07 09:04:17 51°9.83 2°37.832 -999 3.240004 33.419019 4.241452
2003-02-07 09:04:22 51°9.831 2°37.84 -999 3.240426 33.422962 4.174033
2003-02-07 09:04:26 51°9.833 2°37.845 -999 3.234528 33.356426 4.241452
2003-02-07 09:04:31 51°9.835 2°37.853 -999 3.239057 33.408184 4.140324
2003-02-07 09:04:37 51°9.837 2°37.862 -999 3.239057 33.408184 4.140324
2003-02-07 09:04:42 51°9.84 2°37.87 -999 3.237372 33.390667 4.072905
2003-02-07 09:04:46 51°9.841 2°37.876 -999 3.239478 33.413872 4.005486
2003-02-07 09:04:51 51°9.844 2°37.884 -999 3.239688 33.421513 4.072905
2003-02-07 09:04:56 51°9.846 2°37.893 -999 3.236845 33.384648 4.106614
2003-02-07 09:05:02 51°9.848 2°37.902 -999 3.23695 33.387594 4.207742
2003-02-07 09:05:06 51°9.85 2°37.909 -999 3.23695 33.387594 4.207742
2003-02-07 09:05:12 51°9.852 2°37.918 -999 3.24032 33.424375 4.174033
2003-02-07 09:05:16 51°9.854 2°37.924 -999 3.239583 33.418564 4.106614
2003-02-07 09:05:21 51°9.855 2°37.932 -999 3.239267 33.413208 4.140324
2003-02-07 09:05:25 51°9.857 2°37.938 -999 3.238425 33.402705 4.140324
2003-02-07 09:05:31 51°9.858 2°37.947 -999 3.238425 33.400961 4.106614
2003-02-07 09:05:36 51°9.86 2°37.955 -999 3.238425 33.400961 4.106614
2003-02-07 09:05:41 51°9.861 2°37.962 -999 3.236319 33.377758 4.005486
2003-02-07 09:05:44 51°9.862 2°37.966 -999 3.238951 33.406109 4.106614
2003-02-07 09:05:51 51°9.864 2°37.976 -999 3.237266 33.386849 4.174033
2003-02-07 09:05:56 51°9.866 2°37.982 -999 3.239688 33.417151 4.241452
2003-02-07 09:06:00 51°9.867 2°37.986 -999 3.23853 33.403909 4.140324
2003-02-07 09:06:07 51°9.868 2°37.993 -999 3.23853 33.403909 4.140324
2003-02-07 09:06:11 51°9.869 2°37.995 -999 3.238635 33.404241 4.207742
2003-02-07 09:06:16 51°9.87 2°37.998 -999 3.241373 33.435542 4.072905
2003-02-07 09:06:22 51°9.871 2°38.001 -999 3.240636 33.426242 3.971777
2003-02-07 09:06:26 51°9.871 2°38.004 -999 3.240741 33.428318 3.938067
2003-02-07 09:06:32 51°9.872 2°38.007 -999 3.239478 33.413872 3.971777
2003-02-07 09:06:36 51°9.873 2°38.009 -999 3.239478 33.413872 3.971777
2003-02-07 09:06:42 51°9.873 2°38.012 -999 -999 -999 -2.871232
2003-02-07 09:06:46 51°9.874 2°38.014 -999 3.241584 33.441441 3.938067
2003-02-07 09:06:52 51°9.874 2°38.016 -999 3.240952 33.432471 4.140324
2003-02-07 09:06:56 51°9.874 2°38.018 -999 3.239688 33.416279 3.938067
2003-02-07 09:07:02 51°9.875 2°38.021 -999 3.239583 33.41682 3.938067
2003-02-07 09:07:06 51°9.875 2°38.023 -999 3.239583 33.41682 3.938067
2003-02-07 09:07:12 51°9.876 2°38.025 -999 3.241584 33.441441 3.971777
2003-02-07 09:07:16 51°9.876 2°38.027 -999 3.2419 33.447673 3.870648
2003-02-07 09:07:22 51°9.876 2°38.029 -999 3.23853 33.412629 3.836939
2003-02-07 09:07:26 51°9.876 2°38.031 -999 3.23832 33.41022 3.870648
2003-02-07 09:07:32 51°9.877 2°38.033 -999 3.240215 33.434515 3.904358
2003-02-07 09:07:36 51°9.877 2°38.034 -999 3.240215 33.434515 3.904358
2003-02-07 09:07:41 51°9.877 2°38.036 -999 3.236845 33.395978 3.904358
2003-02-07 09:07:45 51°9.877 2°38.037 -999 3.238109 33.413046 3.80323
2003-02-07 09:07:52 51°9.878 2°38.04 -999 3.235687 33.385348 3.836939
2003-02-07 09:07:56 51°9.878 2°38.041 -999 3.235898 33.3895 3.870648
2003-02-07 09:08:01 51°9.878 2°38.043 -999 3.238109 33.414791 3.938067
2003-02-07 09:08:04 51°9.878 2°38.044 -999 3.238109 33.414791 3.938067
2003-02-07 09:08:11 51°9.878 2°38.046 -999 3.232528 33.352708 3.904358
2003-02-07 09:08:16 51°9.878 2°38.047 -999 3.232317 33.352042 3.938067
2003-02-07 09:08:21 51°9.878 2°38.049 -999 3.234845 33.381816 3.938067
2003-02-07 09:08:27 51°9.878 2°38.051 -999 3.234739 33.381483 3.904358
2003-02-07 09:08:30 51°9.878 2°38.052 -999 3.231685 33.347429 3.870648
2003-02-07 09:08:36 51°9.878 2°38.053 -999 3.231685 33.347429 3.870648
2003-02-07 09:08:42 51°9.878 2°38.055 -999 3.232107 33.353117 3.938067
2003-02-07 09:08:46 51°9.878 2°38.056 -999 3.234107 33.376 3.904358
2003-02-07 09:08:51 51°9.878 2°38.058 -999 3.23316 33.365161 3.904358
2003-02-07 09:08:57 51°9.878 2°38.06 -999 3.230632 33.336258 3.836939
2003-02-07 09:09:01 51°9.878 2°38.061 -999 3.237056 33.412344 3.836939
2003-02-07 09:09:06 51°9.878 2°38.062 -999 3.237056 33.412344 3.836939
2003-02-07 09:09:12 51°9.878 2°38.063 -999 3.236003 33.400297 3.870648
2003-02-07 09:09:17 51°9.878 2°38.064 -999 3.229685 33.328032 3.938067
2003-02-07 09:09:22 51°9.878 2°38.064 -999 3.23495 33.388252 3.870648
2003-02-07 09:09:26 51°9.878 2°38.065 -999 3.232633 33.360881 3.938067
2003-02-07 09:09:32 51°9.878 2°38.066 -999 3.229474 33.328235 3.904358
2003-02-07 09:09:37 51°9.878 2°38.067 -999 3.229474 33.328235 3.904358
2003-02-07 09:09:41 51°9.878 2°38.068 -999 3.23674 33.411348 4.005486
2003-02-07 09:09:46 51°9.878 2°38.069 -999 3.233265 33.372466 3.836939
2003-02-07 09:09:52 51°9.878 2°38.07 -999 3.234318 33.386256 3.870648
2003-02-07 09:09:56 51°9.878 2°38.071 -999 3.235055 33.393817 3.904358
2003-02-07 09:10:01 51°9.878 2°38.072 -999 3.235477 33.399509 3.870648
2003-02-07 09:10:06 51°9.878 2°38.072 -999 3.235477 33.399509 3.870648
2003-02-07 09:10:12 51°9.878 2°38.073 -999 3.233792 33.381105 3.836939
2003-02-07 09:10:17 51°9.878 2°38.074 -999 3.230211 33.339278 3.904358
2003-02-07 09:10:21 51°9.878 2°38.075 -999 3.232528 33.365777 3.938067
2003-02-07 09:10:27 51°9.878 2°38.076 -999 3.236214 33.409688 3.904358
2003-02-07 09:10:32 51°9.877 2°38.076 -999 3.233476 33.378363 3.870648
2003-02-07 09:10:37 51°9.877 2°38.077 -999 3.233476 33.378363 3.870648
2003-02-07 09:10:42 51°9.877 2°38.078 -999 3.232212 33.364778 3.938067
2003-02-07 09:10:46 51°9.877 2°38.078 -999 3.232633 33.367854 3.904358
2003-02-07 09:10:52 51°9.877 2°38.079 -999 3.232317 33.366855 3.836939
2003-02-07 09:10:56 51°9.877 2°38.079 -999 3.232949 33.374083 3.870648
2003-02-07 09:11:01 51°9.876 2°38.08 -999 3.231475 33.356346 3.836939
2003-02-07 09:11:06 51°9.876 2°38.08 -999 3.231475 33.356346 3.836939
2003-02-07 09:11:12 51°9.876 2°38.081 -999 3.23337 33.378902 3.870648
2003-02-07 09:11:15 51°9.876 2°38.081 -999 3.232739 33.371674 3.870648
2003-02-07 09:11:22 51°9.875 2°38.082 -999 3.234634 33.394232 3.836939
2003-02-07 09:11:27 51°9.875 2°38.083 -999 3.23316 33.376493 3.80323
2003-02-07 09:11:32 51°9.875 2°38.083 -999 3.230948 33.350323 3.836939
2003-02-07 09:11:37 51°9.874 2°38.084 -999 3.230948 33.350323 3.836939
2003-02-07 09:11:42 51°9.874 2°38.084 -999 3.234424 33.391823 3.870648
2003-02-07 09:11:46 51°9.873 2°38.085 -999 3.230843 33.349989 3.870648
2003-02-07 09:11:52 51°9.873 2°38.085 -999 3.231264 33.354808 3.836939
2003-02-07 09:11:57 51°9.873 2°38.085 -999 3.230738 33.350527 3.938067
2003-02-07 09:12:01 51°9.872 2°38.086 -999 3.228316 33.322821 3.870648
2003-02-07 09:12:06 51°9.872 2°38.086 -999 3.228316 33.322821 3.870648
2003-02-07 09:12:12 51°9.871 2°38.087 -999 3.230001 33.342095 3.76952
2003-02-07 09:12:16 51°9.871 2°38.087 -999 3.229369 33.335738 3.870648
2003-02-07 09:12:21 51°9.87 2°38.087 -999 3.229158 33.331587 3.870648
2003-02-07 09:12:26 51°9.87 2°38.087 -999 3.231159 33.355346 3.870648
2003-02-07 09:12:32 51°9.87 2°38.087 -999 3.228316 33.323692 3.904358
2003-02-07 09:12:37 51°9.869 2°38.088 -999 3.228316 33.323692 3.904358
2003-02-07 09:12:40 51°9.869 2°38.088 -999 3.228842 33.330586 3.904358
2003-02-07 09:12:46 51°9.869 2°38.088 -999 3.229895 33.34089 3.904358
2003-02-07 09:12:52 51°9.868 2°38.089 -999 3.233581 33.383056 3.938067
2003-02-07 09:12:56 51°9.868 2°38.089 -999 3.228632 33.327306 3.870648
2003-02-07 09:13:01 51°9.868 2°38.089 -999 3.229158 33.3342 3.938067
2003-02-07 09:13:07 51°9.867 2°38.09 -999 3.229158 33.3342 3.938067
2003-02-07 09:13:12 51°9.867 2°38.09 -999 3.227789 33.317669 3.938067
2003-02-07 09:13:16 51°9.867 2°38.09 -999 3.230211 33.346246 4.039195
2003-02-07 09:13:21 51°9.866 2°38.09 -999 3.230211 33.344504 3.836939
2003-02-07 09:13:27 51°9.866 2°38.09 -999 3.228 33.32269 3.870648
2003-02-07 09:13:30 51°9.866 2°38.09 -999 3.231791 33.362574 3.870648
2003-02-07 09:13:36 51°9.865 2°38.09 -999 3.231791 33.362574 3.870648
2003-02-07 09:13:41 51°9.864 2°38.09 -999 3.230106 33.34417 4.106614
2003-02-07 09:13:46 51°9.864 2°38.09 -999 3.229474 33.337814 3.870648
2003-02-07 09:13:51 51°9.863 2°38.09 -999 3.229264 33.334533 3.904358
2003-02-07 09:13:57 51°9.863 2°38.09 -999 3.228737 33.32851 3.904358
2003-02-07 09:14:01 51°9.862 2°38.09 -999 3.226947 33.308903 3.904358
2003-02-07 09:14:06 51°9.862 2°38.09 -999 3.226947 33.308903 3.904358
2003-02-07 09:14:12 51°9.861 2°38.09 -999 3.228632 33.329047 3.904358
2003-02-07 09:14:15 51°9.861 2°38.089 -999 3.227789 33.322893 3.870648
2003-02-07 09:14:22 51°9.86 2°38.089 -999 3.225473 33.298131 3.870648
2003-02-07 09:14:26 51°9.859 2°38.089 -999 3.226842 33.314662 4.005486
2003-02-07 09:14:32 51°9.858 2°38.089 -999 3.222524 33.267011 3.870648
2003-02-07 09:14:36 51°9.858 2°38.088 -999 3.222524 33.267011 3.870648
2003-02-07 09:14:41 51°9.857 2°38.088 -999 3.221682 33.258244 3.80323
2003-02-07 09:14:46 51°9.856 2°38.087 -999 3.223472 33.280462 3.836939
2003-02-07 09:14:52 51°9.856 2°38.087 -999 3.22284 33.275843 3.735811